Time,TemperatureF,DewpointF,PressureIn,WindDirection,WindDirectionDegrees,WindSpeedMPH,WindSpeedGustMPH,Humidity,HourlyPrecipIn,Conditions,Clouds,dailyrainin,SoftwareType,DateUTC
2013-04-30 00:02:00,73.9,55.8,29.75,SE,135,6.0,13.0,53,0.00,,,0.00,WUHU216EASYWX,2013-04-30 05:02:00,
2013-04-30 00:03:00,73.9,55.8,29.75,SE,135,6.0,13.0,53,0.00,,,0.00,WUHU216EASYWX,2013-04-30 05:03:00,
2013-04-30 00:07:00,73.9,56.3,29.75,SW,225,4.5,13.0,54,0.00,,,0.00,WUHU216EASYWX,2013-04-30 05:07:00,
2013-04-30 00:08:00,73.9,56.3,29.75,SW,225,4.5,13.0,54,0.00,,,0.00,WUHU216EASYWX,2013-04-30 05:08:00,
2013-04-30 00:09:00,73.8,55.6,29.75,SW,225,6.0,9.9,53,0.00,,,0.00,WUHU216EASYWX,2013-04-30 05:09:00,
2013-04-30 00:12:00,73.8,55.6,29.75,SW,225,6.0,9.9,53,0.00,,,0.00,WUHU216EASYWX,2013-04-30 05:12:00,
2013-04-30 00:13:00,73.8,55.6,29.75,SW,225,6.0,9.9,53,0.00,,,0.00,WUHU216EASYWX,2013-04-30 05:13:00,
2013-04-30 00:14:00,73.6,55.4,29.75,South,180,4.5,9.9,53,0.00,,,0.00,WUHU216EASYWX,2013-04-30 05:14:00,
2013-04-30 00:18:00,73.6,55.4,29.75,South,180,4.5,9.9,53,0.00,,,0.00,WUHU216EASYWX,2013-04-30 05:18:00,
2013-04-30 00:19:00,73.6,55.9,29.75,SE,135,6.0,9.9,54,0.00,,,0.00,WUHU216EASYWX,2013-04-30 05:19:00,
2013-04-30 00:23:00,73.6,55.9,29.75,SE,135,6.0,9.9,54,0.00,,,0.00,WUHU216EASYWX,2013-04-30 05:23:00,
2013-04-30 00:24:00,73.6,55.9,29.75,SW,225,4.5,9.9,54,0.00,,,0.00,WUHU216EASYWX,2013-04-30 05:24:00,
2013-04-30 00:28:00,73.6,55.9,29.75,SW,225,4.5,9.9,54,0.00,,,0.00,WUHU216EASYWX,2013-04-30 05:28:00,
2013-04-30 00:29:00,73.6,55.9,29.75,SE,135,6.9,9.9,54,0.00,,,0.00,WUHU216EASYWX,2013-04-30 05:29:00,
2013-04-30 00:33:00,73.6,55.9,29.75,SE,135,6.9,9.2,54,0.00,,,0.00,WUHU216EASYWX,2013-04-30 05:33:00,
2013-04-30 00:34:00,73.6,55.9,29.75,South,180,6.0,10.8,54,0.00,,,0.00,WUHU216EASYWX,2013-04-30 05:34:00,
2013-04-30 00:38:00,73.6,55.9,29.75,South,180,6.0,10.8,54,0.00,,,0.00,WUHU216EASYWX,2013-04-30 05:38:00,
2013-04-30 00:39:00,73.4,55.8,29.75,SW,225,4.5,10.8,54,0.00,,,0.00,WUHU216EASYWX,2013-04-30 05:39:00,
2013-04-30 00:41:00,73.4,55.8,29.75,SW,225,4.5,10.8,54,0.00,,,0.00,WUHU216EASYWX,2013-04-30 05:41:00,
2013-04-30 00:43:00,73.4,55.8,29.75,SW,225,4.5,10.8,54,0.00,,,0.00,WUHU216EASYWX,2013-04-30 05:43:00,
2013-04-30 00:44:00,73.2,55.6,29.76,SE,135,5.4,9.2,54,0.00,,,0.00,WUHU216EASYWX,2013-04-30 05:44:00,
2013-04-30 00:46:00,73.2,55.6,29.76,SE,135,5.4,9.2,54,0.00,,,0.00,WUHU216EASYWX,2013-04-30 05:46:00,
2013-04-30 00:49:00,73.0,55.9,29.75,SW,225,6.0,9.2,55,0.00,,,0.00,WUHU216EASYWX,2013-04-30 05:49:00,
2013-04-30 00:50:00,73.0,55.9,29.75,SW,225,6.0,9.2,55,0.00,,,0.00,WUHU216EASYWX,2013-04-30 05:50:00,
2013-04-30 00:51:00,73.0,55.9,29.75,SW,225,6.0,9.2,55,0.00,,,0.00,WUHU216EASYWX,2013-04-30 05:51:00,
2013-04-30 00:54:00,73.0,55.9,29.75,South,180,3.1,9.2,55,0.00,,,0.00,WUHU216EASYWX,2013-04-30 05:54:00,
2013-04-30 00:55:00,73.0,55.9,29.75,South,180,3.1,9.2,55,0.00,,,0.00,WUHU216EASYWX,2013-04-30 05:55:00,
2013-04-30 00:56:00,73.0,55.9,29.75,South,180,3.1,9.2,55,0.00,,,0.00,WUHU216EASYWX,2013-04-30 05:56:00,
2013-04-30 00:59:00,72.9,56.3,29.75,SW,225,7.6,13.7,56,0.00,,,0.00,WUHU216EASYWX,2013-04-30 05:59:00,
2013-04-30 01:00:00,72.9,56.3,29.75,SW,225,7.6,13.7,56,0.00,,,0.00,WUHU216EASYWX,2013-04-30 06:00:00,
2013-04-30 01:01:00,72.9,56.3,29.75,SW,225,7.6,13.7,56,0.00,,,0.00,WUHU216EASYWX,2013-04-30 06:01:00,
2013-04-30 01:04:00,72.7,56.1,29.75,SW,225,6.0,13.7,56,0.00,,,0.00,WUHU216EASYWX,2013-04-30 06:04:00,
2013-04-30 01:05:00,72.7,56.1,29.75,SW,225,6.0,13.7,56,0.00,,,0.00,WUHU216EASYWX,2013-04-30 06:05:00,
2013-04-30 01:06:00,72.7,56.1,29.75,SW,225,6.0,13.7,56,0.00,,,0.00,WUHU216EASYWX,2013-04-30 06:06:00,
2013-04-30 01:10:00,72.7,56.1,29.75,SW,225,5.4,12.1,56,0.00,,,0.00,WUHU216EASYWX,2013-04-30 06:10:00,
2013-04-30 01:11:00,72.7,56.1,29.75,SW,225,5.4,12.1,56,0.00,,,0.00,WUHU216EASYWX,2013-04-30 06:11:00,
2013-04-30 01:15:00,72.5,56.5,29.75,South,180,5.4,9.9,57,0.00,,,0.00,WUHU216EASYWX,2013-04-30 06:15:00,
2013-04-30 01:16:00,72.5,56.5,29.75,South,180,5.4,9.9,57,0.00,,,0.00,WUHU216EASYWX,2013-04-30 06:16:00,
2013-04-30 01:17:00,72.5,56.5,29.75,South,180,5.4,9.9,57,0.00,,,0.00,WUHU216EASYWX,2013-04-30 06:17:00,
2013-04-30 01:20:00,72.3,56.3,29.75,South,180,8.3,12.1,57,0.00,,,0.00,WUHU216EASYWX,2013-04-30 06:20:00,
2013-04-30 01:21:00,72.3,56.3,29.75,South,180,8.3,12.1,57,0.00,,,0.00,WUHU216EASYWX,2013-04-30 06:21:00,
2013-04-30 01:22:00,72.3,56.3,29.75,South,180,8.3,12.1,57,0.00,,,0.00,WUHU216EASYWX,2013-04-30 06:22:00,
2013-04-30 01:25:00,72.3,56.3,29.75,SW,225,9.9,14.6,57,0.00,,,0.00,WUHU216EASYWX,2013-04-30 06:25:00,
2013-04-30 01:26:00,72.3,56.3,29.75,SW,225,9.9,14.6,57,0.00,,,0.00,WUHU216EASYWX,2013-04-30 06:26:00,
2013-04-30 01:28:00,72.3,56.3,29.75,SW,225,9.9,14.6,57,0.00,,,0.00,WUHU216EASYWX,2013-04-30 06:28:00,
2013-04-30 01:30:00,72.1,56.7,29.75,SW,225,5.4,14.6,58,0.00,,,0.00,WUHU216EASYWX,2013-04-30 06:30:00,
2013-04-30 01:31:00,72.1,56.7,29.75,SW,225,5.4,14.6,58,0.00,,,0.00,WUHU216EASYWX,2013-04-30 06:31:00,
2013-04-30 01:33:00,72.1,56.7,29.75,SW,225,5.4,14.6,58,0.00,,,0.00,WUHU216EASYWX,2013-04-30 06:33:00,
2013-04-30 01:35:00,72.1,56.7,29.75,North,0,5.4,11.4,58,0.00,,,0.00,WUHU216EASYWX,2013-04-30 06:35:00,
2013-04-30 01:36:00,72.1,56.7,29.75,North,0,5.4,11.4,58,0.00,,,0.00,WUHU216EASYWX,2013-04-30 06:36:00,
2013-04-30 01:38:00,72.1,56.7,29.75,North,0,5.4,11.4,58,0.00,,,0.00,WUHU216EASYWX,2013-04-30 06:38:00,
2013-04-30 01:40:00,72.1,56.7,29.76,South,180,4.5,11.4,58,0.00,,,0.00,WUHU216EASYWX,2013-04-30 06:40:00,
2013-04-30 01:41:00,72.1,56.7,29.76,South,180,4.5,11.4,58,0.00,,,0.00,WUHU216EASYWX,2013-04-30 06:41:00,
2013-04-30 01:42:00,72.1,56.7,29.76,South,180,4.5,11.4,58,0.00,,,0.00,WUHU216EASYWX,2013-04-30 06:42:00,
2013-04-30 01:43:00,72.1,56.7,29.76,South,180,4.5,11.4,58,0.00,,,0.00,WUHU216EASYWX,2013-04-30 06:43:00,
2013-04-30 01:45:00,72.0,56.8,29.76,South,180,6.0,8.3,59,0.00,,,0.00,WUHU216EASYWX,2013-04-30 06:45:00,
2013-04-30 01:47:00,72.0,56.8,29.76,South,180,6.0,8.3,59,0.00,,,0.00,WUHU216EASYWX,2013-04-30 06:47:00,
2013-04-30 01:48:00,72.0,56.8,29.76,South,180,6.0,8.3,59,0.00,,,0.00,WUHU216EASYWX,2013-04-30 06:48:00,
2013-04-30 01:50:00,71.8,57.2,29.76,SE,135,2.2,8.3,60,0.00,,,0.00,WUHU216EASYWX,2013-04-30 06:50:00,
2013-04-30 01:52:00,71.8,57.2,29.76,SE,135,2.2,8.3,60,0.00,,,0.00,WUHU216EASYWX,2013-04-30 06:52:00,
2013-04-30 01:53:00,71.8,57.2,29.76,SE,135,2.2,8.3,60,0.00,,,0.00,WUHU216EASYWX,2013-04-30 06:53:00,
2013-04-30 01:55:00,71.8,57.2,29.76,SW,225,3.8,9.2,60,0.00,,,0.00,WUHU216EASYWX,2013-04-30 06:55:00,
2013-04-30 01:57:00,71.8,57.2,29.76,SW,225,3.8,9.2,60,0.00,,,0.00,WUHU216EASYWX,2013-04-30 06:57:00,
2013-04-30 01:58:00,71.8,57.2,29.76,SW,225,3.8,9.2,60,0.00,,,0.00,WUHU216EASYWX,2013-04-30 06:58:00,
2013-04-30 02:00:00,71.6,57.6,29.76,SW,225,5.4,9.2,61,0.00,,,0.00,WUHU216EASYWX,2013-04-30 07:00:00,
2013-04-30 02:02:00,71.6,57.6,29.76,SW,225,5.4,9.2,61,0.00,,,0.00,WUHU216EASYWX,2013-04-30 07:02:00,
2013-04-30 02:03:00,71.6,57.6,29.76,SW,225,5.4,9.2,61,0.00,,,0.00,WUHU216EASYWX,2013-04-30 07:03:00,
2013-04-30 02:05:00,71.6,57.6,29.76,SW,225,3.1,7.6,61,0.00,,,0.00,WUHU216EASYWX,2013-04-30 07:05:00,
2013-04-30 02:07:00,71.6,57.6,29.76,SW,225,3.1,7.6,61,0.00,,,0.00,WUHU216EASYWX,2013-04-30 07:07:00,
2013-04-30 02:08:00,71.6,57.6,29.76,SW,225,3.1,7.6,61,0.00,,,0.00,WUHU216EASYWX,2013-04-30 07:08:00,
2013-04-30 02:10:00,71.4,57.7,29.76,South,180,6.0,10.8,62,0.00,,,0.00,WUHU216EASYWX,2013-04-30 07:10:00,
2013-04-30 02:13:00,71.4,57.7,29.76,South,180,6.0,10.8,62,0.00,,,0.00,WUHU216EASYWX,2013-04-30 07:13:00,
2013-04-30 02:16:00,71.4,57.7,29.76,South,180,4.5,10.8,62,0.00,,,0.00,WUHU216EASYWX,2013-04-30 07:16:00,
2013-04-30 02:18:00,71.4,57.7,29.76,South,180,4.5,10.8,62,0.00,,,0.00,WUHU216EASYWX,2013-04-30 07:18:00,
2013-04-30 02:22:00,71.2,58.1,29.76,SE,135,6.0,9.2,63,0.00,,,0.00,WUHU216EASYWX,2013-04-30 07:22:00,
2013-04-30 02:23:00,71.2,58.1,29.76,SE,135,6.0,9.2,63,0.00,,,0.00,WUHU216EASYWX,2013-04-30 07:23:00,
2013-04-30 02:27:00,71.1,57.9,29.76,SW,225,4.5,9.2,63,0.00,,,0.00,WUHU216EASYWX,2013-04-30 07:27:00,
2013-04-30 02:28:00,71.1,57.9,29.76,SW,225,4.5,9.2,63,0.00,,,0.00,WUHU216EASYWX,2013-04-30 07:28:00,
2013-04-30 02:29:00,71.1,57.9,29.76,SW,225,4.5,9.2,63,0.00,,,0.00,WUHU216EASYWX,2013-04-30 07:29:00,
2013-04-30 02:32:00,71.1,58.3,29.76,SW,225,6.0,10.8,64,0.00,,,0.00,WUHU216EASYWX,2013-04-30 07:32:00,
2013-04-30 02:33:00,71.1,58.3,29.76,SW,225,6.0,10.8,64,0.00,,,0.00,WUHU216EASYWX,2013-04-30 07:33:00,
2013-04-30 02:34:00,71.1,58.3,29.76,SW,225,6.0,10.8,64,0.00,,,0.00,WUHU216EASYWX,2013-04-30 07:34:00,
2013-04-30 02:37:00,70.9,58.1,29.76,South,180,4.5,11.4,64,0.00,,,0.00,WUHU216EASYWX,2013-04-30 07:37:00,
2013-04-30 02:39:00,70.9,58.1,29.76,South,180,4.5,11.4,64,0.00,,,0.00,WUHU216EASYWX,2013-04-30 07:39:00,
2013-04-30 02:40:00,70.9,58.1,29.76,SW,225,6.0,11.4,64,0.00,,,0.00,WUHU216EASYWX,2013-04-30 07:40:00,
2013-04-30 02:43:00,70.9,58.1,29.76,SW,225,6.0,11.4,64,0.00,,,0.00,WUHU216EASYWX,2013-04-30 07:43:00,
2013-04-30 02:44:00,70.7,57.9,29.76,SE,135,3.8,11.4,64,0.00,,,0.00,WUHU216EASYWX,2013-04-30 07:44:00,
2013-04-30 02:45:00,70.7,57.9,29.76,SE,135,3.8,9.2,64,0.00,,,0.00,WUHU216EASYWX,2013-04-30 07:45:00,
2013-04-30 02:48:00,70.7,57.9,29.76,SE,135,3.8,9.2,64,0.00,,,0.00,WUHU216EASYWX,2013-04-30 07:48:00,
2013-04-30 02:49:00,70.3,58.1,29.76,West,270,7.6,13.0,65,0.00,,,0.00,WUHU216EASYWX,2013-04-30 07:49:00,
2013-04-30 02:50:00,70.3,58.1,29.76,West,270,7.6,13.0,65,0.00,,,0.00,WUHU216EASYWX,2013-04-30 07:50:00,
2013-04-30 02:53:00,70.3,58.1,29.76,West,270,7.6,13.0,65,0.00,,,0.00,WUHU216EASYWX,2013-04-30 07:53:00,
2013-04-30 02:54:00,70.2,57.9,29.76,SSE,158,3.1,13.0,65,0.00,,,0.00,WUHU216EASYWX,2013-04-30 07:54:00,
2013-04-30 02:55:00,70.2,57.9,29.76,SSE,158,3.1,13.0,65,0.00,,,0.00,WUHU216EASYWX,2013-04-30 07:55:00,
2013-04-30 02:58:00,70.2,57.9,29.76,SSE,158,3.1,13.0,65,0.00,,,0.00,WUHU216EASYWX,2013-04-30 07:58:00,
2013-04-30 02:59:00,70.0,57.7,29.76,SE,135,3.1,6.0,65,0.00,,,0.00,WUHU216EASYWX,2013-04-30 07:59:00,
2013-04-30 03:01:00,70.0,57.7,29.76,SE,135,3.1,6.0,65,0.00,,,0.00,WUHU216EASYWX,2013-04-30 08:01:00,
2013-04-30 03:04:00,70.0,58.1,29.76,South,180,3.8,6.9,66,0.00,,,0.00,WUHU216EASYWX,2013-04-30 08:04:00,
2013-04-30 03:06:00,70.0,58.1,29.76,South,180,3.8,6.9,66,0.00,,,0.00,WUHU216EASYWX,2013-04-30 08:06:00,
2013-04-30 03:09:00,69.8,57.9,29.76,SW,225,3.1,6.9,66,0.00,,,0.00,WUHU216EASYWX,2013-04-30 08:09:00,
2013-04-30 03:10:00,69.8,57.9,29.76,SW,225,3.1,6.9,66,0.00,,,0.00,WUHU216EASYWX,2013-04-30 08:10:00,
2013-04-30 03:11:00,69.8,57.9,29.76,SW,225,3.1,6.9,66,0.00,,,0.00,WUHU216EASYWX,2013-04-30 08:11:00,
2013-04-30 03:14:00,69.6,57.7,29.76,South,180,3.1,6.0,66,0.00,,,0.00,WUHU216EASYWX,2013-04-30 08:14:00,
2013-04-30 03:15:00,69.6,57.7,29.76,South,180,3.1,6.0,66,0.00,,,0.00,WUHU216EASYWX,2013-04-30 08:15:00,
2013-04-30 03:16:00,69.6,57.7,29.76,South,180,3.1,6.0,66,0.00,,,0.00,WUHU216EASYWX,2013-04-30 08:16:00,
2013-04-30 03:19:00,69.4,58.1,29.76,SW,225,4.5,6.9,67,0.00,,,0.00,WUHU216EASYWX,2013-04-30 08:19:00,
2013-04-30 03:20:00,69.4,58.1,29.76,SW,225,4.5,6.9,67,0.00,,,0.00,WUHU216EASYWX,2013-04-30 08:20:00,
2013-04-30 03:22:00,69.4,58.1,29.76,SW,225,4.5,6.9,67,0.00,,,0.00,WUHU216EASYWX,2013-04-30 08:22:00,
2013-04-30 03:24:00,69.1,58.1,29.76,South,180,5.4,8.3,68,0.00,,,0.00,WUHU216EASYWX,2013-04-30 08:24:00,
2013-04-30 03:25:00,69.1,58.1,29.76,South,180,5.4,8.3,68,0.00,,,0.00,WUHU216EASYWX,2013-04-30 08:25:00,
2013-04-30 03:26:00,69.1,58.1,29.76,South,180,5.4,8.3,68,0.00,,,0.00,WUHU216EASYWX,2013-04-30 08:26:00,
2013-04-30 03:27:00,69.1,58.1,29.76,South,180,5.4,8.3,68,0.00,,,0.00,WUHU216EASYWX,2013-04-30 08:27:00,
2013-04-30 03:29:00,68.5,57.6,29.76,SE,135,6.9,12.1,68,0.00,,,0.00,WUHU216EASYWX,2013-04-30 08:29:00,
2013-04-30 03:30:00,68.5,57.6,29.76,SE,135,6.9,12.1,68,0.00,,,0.00,WUHU216EASYWX,2013-04-30 08:30:00,
2013-04-30 03:31:00,68.5,57.6,29.76,SE,135,6.9,12.1,68,0.00,,,0.00,WUHU216EASYWX,2013-04-30 08:31:00,
2013-04-30 03:33:00,68.5,57.6,29.76,SE,135,6.9,12.1,68,0.00,,,0.00,WUHU216EASYWX,2013-04-30 08:33:00,
2013-04-30 03:34:00,68.4,57.9,29.76,SW,225,3.8,12.1,69,0.00,,,0.00,WUHU216EASYWX,2013-04-30 08:34:00,
2013-04-30 03:35:00,68.4,57.9,29.76,SW,225,3.8,12.1,69,0.00,,,0.00,WUHU216EASYWX,2013-04-30 08:35:00,
2013-04-30 03:36:00,68.4,57.9,29.76,SW,225,3.8,12.1,69,0.00,,,0.00,WUHU216EASYWX,2013-04-30 08:36:00,
2013-04-30 03:39:00,68.2,57.7,29.77,SW,225,3.1,12.1,69,0.00,,,0.00,WUHU216EASYWX,2013-04-30 08:39:00,
2013-04-30 03:40:00,68.2,57.7,29.77,SW,225,3.1,8.3,69,0.00,,,0.00,WUHU216EASYWX,2013-04-30 08:40:00,
2013-04-30 03:41:00,68.2,57.7,29.77,SW,225,3.1,8.3,69,0.00,,,0.00,WUHU216EASYWX,2013-04-30 08:41:00,
2013-04-30 03:44:00,68.2,57.7,29.77,SW,225,3.1,8.3,69,0.00,,,0.00,WUHU216EASYWX,2013-04-30 08:44:00,
2013-04-30 03:45:00,68.0,57.9,29.77,South,180,4.5,9.2,70,0.00,,,0.00,WUHU216EASYWX,2013-04-30 08:45:00,
2013-04-30 03:46:00,68.0,57.9,29.77,South,180,4.5,9.2,70,0.00,,,0.00,WUHU216EASYWX,2013-04-30 08:46:00,
2013-04-30 03:49:00,68.0,57.9,29.77,South,180,4.5,9.2,70,0.00,,,0.00,WUHU216EASYWX,2013-04-30 08:49:00,
2013-04-30 03:50:00,68.0,57.9,29.77,SE,135,2.2,9.2,70,0.00,,,0.00,WUHU216EASYWX,2013-04-30 08:50:00,
2013-04-30 03:51:00,68.0,57.9,29.77,SE,135,2.2,9.2,70,0.00,,,0.00,WUHU216EASYWX,2013-04-30 08:51:00,
2013-04-30 03:52:00,68.0,57.9,29.77,SE,135,2.2,9.2,70,0.00,,,0.00,WUHU216EASYWX,2013-04-30 08:52:00,
2013-04-30 03:54:00,67.6,57.6,29.77,South,180,3.8,9.2,70,0.00,,,0.00,WUHU216EASYWX,2013-04-30 08:54:00,
2013-04-30 03:55:00,67.6,57.6,29.77,South,180,3.8,6.0,70,0.00,,,0.00,WUHU216EASYWX,2013-04-30 08:55:00,
2013-04-30 03:56:00,67.6,57.6,29.77,South,180,3.8,6.0,70,0.00,,,0.00,WUHU216EASYWX,2013-04-30 08:56:00,
2013-04-30 03:57:00,67.6,57.6,29.77,South,180,3.8,6.0,70,0.00,,,0.00,WUHU216EASYWX,2013-04-30 08:57:00,
2013-04-30 03:59:00,67.8,57.7,29.77,South,180,2.2,5.4,70,0.00,,,0.00,WUHU216EASYWX,2013-04-30 08:59:00,
2013-04-30 04:00:00,67.8,57.7,29.77,South,180,2.2,5.4,70,0.00,,,0.00,WUHU216EASYWX,2013-04-30 09:00:00,
2013-04-30 04:01:00,67.8,57.7,29.77,South,180,2.2,5.4,70,0.00,,,0.00,WUHU216EASYWX,2013-04-30 09:01:00,
2013-04-30 04:02:00,67.8,57.7,29.77,South,180,2.2,5.4,70,0.00,,,0.00,WUHU216EASYWX,2013-04-30 09:02:00,
2013-04-30 04:04:00,67.8,57.7,29.77,SW,225,2.2,5.4,70,0.00,,,0.00,WUHU216EASYWX,2013-04-30 09:04:00,
2013-04-30 04:05:00,67.8,57.7,29.77,SW,225,2.2,5.4,70,0.00,,,0.00,WUHU216EASYWX,2013-04-30 09:05:00,
2013-04-30 04:06:00,67.8,57.7,29.77,SW,225,2.2,5.4,70,0.00,,,0.00,WUHU216EASYWX,2013-04-30 09:06:00,
2013-04-30 04:07:00,67.8,57.7,29.77,SW,225,2.2,5.4,70,0.00,,,0.00,WUHU216EASYWX,2013-04-30 09:07:00,
2013-04-30 04:09:00,67.5,57.4,29.77,South,180,3.1,5.4,70,0.00,,,0.00,WUHU216EASYWX,2013-04-30 09:09:00,
2013-04-30 04:10:00,67.5,57.4,29.77,South,180,3.1,5.4,70,0.00,,,0.00,WUHU216EASYWX,2013-04-30 09:10:00,
2013-04-30 04:12:00,67.5,57.4,29.77,South,180,3.1,5.4,70,0.00,,,0.00,WUHU216EASYWX,2013-04-30 09:12:00,
2013-04-30 04:13:00,67.5,57.4,29.77,South,180,3.1,5.4,70,0.00,,,0.00,WUHU216EASYWX,2013-04-30 09:13:00,
2013-04-30 04:14:00,67.5,57.4,29.77,South,180,3.1,6.9,70,0.00,,,0.00,WUHU216EASYWX,2013-04-30 09:14:00,
2013-04-30 04:15:00,67.5,57.4,29.77,South,180,3.1,6.9,70,0.00,,,0.00,WUHU216EASYWX,2013-04-30 09:15:00,
2013-04-30 04:17:00,67.5,57.4,29.77,South,180,3.1,6.9,70,0.00,,,0.00,WUHU216EASYWX,2013-04-30 09:17:00,
2013-04-30 04:18:00,67.5,57.4,29.77,South,180,3.1,6.9,70,0.00,,,0.00,WUHU216EASYWX,2013-04-30 09:18:00,
2013-04-30 04:20:00,67.3,57.6,29.78,South,180,1.6,6.9,71,0.00,,,0.00,WUHU216EASYWX,2013-04-30 09:20:00,
2013-04-30 04:22:00,67.3,57.6,29.78,South,180,1.6,6.9,71,0.00,,,0.00,WUHU216EASYWX,2013-04-30 09:22:00,
2013-04-30 04:23:00,67.3,57.6,29.78,South,180,1.6,6.9,71,0.00,,,0.00,WUHU216EASYWX,2013-04-30 09:23:00,
2013-04-30 04:25:00,67.1,57.4,29.77,South,180,3.8,6.9,71,0.00,,,0.00,WUHU216EASYWX,2013-04-30 09:25:00,
2013-04-30 04:26:00,67.1,57.4,29.77,South,180,3.8,6.9,71,0.00,,,0.00,WUHU216EASYWX,2013-04-30 09:26:00,
2013-04-30 04:27:00,67.1,57.4,29.77,South,180,3.8,6.9,71,0.00,,,0.00,WUHU216EASYWX,2013-04-30 09:27:00,
2013-04-30 04:28:00,67.1,57.4,29.77,South,180,3.8,6.9,71,0.00,,,0.00,WUHU216EASYWX,2013-04-30 09:28:00,
2013-04-30 04:30:00,66.9,57.2,29.78,SW,225,3.1,6.9,71,0.00,,,0.00,WUHU216EASYWX,2013-04-30 09:30:00,
2013-04-30 04:31:00,66.9,57.2,29.78,SW,225,3.1,6.9,71,0.00,,,0.00,WUHU216EASYWX,2013-04-30 09:31:00,
2013-04-30 04:32:00,66.9,57.2,29.78,SW,225,3.1,6.9,71,0.00,,,0.00,WUHU216EASYWX,2013-04-30 09:32:00,
2013-04-30 04:34:00,66.9,57.2,29.78,SW,225,3.1,4.5,71,0.00,,,0.00,WUHU216EASYWX,2013-04-30 09:34:00,
2013-04-30 04:35:00,66.7,57.0,29.78,NW,315,3.1,5.4,71,0.00,,,0.00,WUHU216EASYWX,2013-04-30 09:35:00,
2013-04-30 04:36:00,66.7,57.0,29.78,NW,315,3.1,5.4,71,0.00,,,0.00,WUHU216EASYWX,2013-04-30 09:36:00,
2013-04-30 04:37:00,66.7,57.0,29.78,NW,315,3.1,5.4,71,0.00,,,0.00,WUHU216EASYWX,2013-04-30 09:37:00,
2013-04-30 04:39:00,66.4,57.2,29.78,SW,225,2.2,6.9,72,0.00,,,0.00,WUHU216EASYWX,2013-04-30 09:39:00,
2013-04-30 04:40:00,66.4,57.2,29.78,SW,225,2.2,6.9,72,0.00,,,0.00,WUHU216EASYWX,2013-04-30 09:40:00,
2013-04-30 04:41:00,66.4,57.2,29.78,SW,225,2.2,6.9,72,0.00,,,0.00,WUHU216EASYWX,2013-04-30 09:41:00,
2013-04-30 04:42:00,66.4,57.2,29.78,SW,225,2.2,6.9,72,0.00,,,0.00,WUHU216EASYWX,2013-04-30 09:42:00,
2013-04-30 04:44:00,66.4,57.2,29.78,SW,225,3.1,6.9,72,0.00,,,0.00,WUHU216EASYWX,2013-04-30 09:44:00,
2013-04-30 04:45:00,66.4,57.2,29.78,SW,225,3.1,6.9,72,0.00,,,0.00,WUHU216EASYWX,2013-04-30 09:45:00,
2013-04-30 04:46:00,66.4,57.2,29.78,SW,225,3.1,6.9,72,0.00,,,0.00,WUHU216EASYWX,2013-04-30 09:46:00,
2013-04-30 04:48:00,66.4,57.2,29.78,SW,225,3.1,6.9,72,0.00,,,0.00,WUHU216EASYWX,2013-04-30 09:48:00,
2013-04-30 04:49:00,66.0,57.2,29.78,SE,135,1.6,5.4,73,0.00,,,0.00,WUHU216EASYWX,2013-04-30 09:49:00,
2013-04-30 04:50:00,66.0,57.2,29.78,SE,135,1.6,5.4,73,0.00,,,0.00,WUHU216EASYWX,2013-04-30 09:50:00,
2013-04-30 04:51:00,66.0,57.2,29.78,SE,135,1.6,5.4,73,0.00,,,0.00,WUHU216EASYWX,2013-04-30 09:51:00,
2013-04-30 04:53:00,66.0,57.2,29.78,SE,135,1.6,5.4,73,0.00,,,0.00,WUHU216EASYWX,2013-04-30 09:53:00,
2013-04-30 04:55:00,65.8,57.0,29.78,South,180,3.1,6.0,73,0.00,,,0.00,WUHU216EASYWX,2013-04-30 09:55:00,
2013-04-30 04:56:00,65.8,57.0,29.78,South,180,3.1,6.0,73,0.00,,,0.00,WUHU216EASYWX,2013-04-30 09:56:00,
2013-04-30 04:58:00,65.8,57.0,29.78,South,180,3.1,6.0,73,0.00,,,0.00,WUHU216EASYWX,2013-04-30 09:58:00,
2013-04-30 05:00:00,65.5,57.0,29.78,East,90,2.2,6.0,74,0.00,,,0.00,WUHU216EASYWX,2013-04-30 10:00:00,
2013-04-30 05:01:00,65.5,57.0,29.78,East,90,2.2,6.0,74,0.00,,,0.00,WUHU216EASYWX,2013-04-30 10:01:00,
2013-04-30 05:02:00,65.5,57.0,29.78,East,90,2.2,6.0,74,0.00,,,0.00,WUHU216EASYWX,2013-04-30 10:02:00,
2013-04-30 05:03:00,65.5,57.0,29.78,East,90,2.2,6.0,74,0.00,,,0.00,WUHU216EASYWX,2013-04-30 10:03:00,
2013-04-30 05:05:00,65.5,57.0,29.77,South,180,2.2,6.0,74,0.00,,,0.00,WUHU216EASYWX,2013-04-30 10:05:00,
2013-04-30 05:06:00,65.5,57.0,29.77,South,180,2.2,6.0,74,0.00,,,0.00,WUHU216EASYWX,2013-04-30 10:06:00,
2013-04-30 05:07:00,65.5,57.0,29.77,South,180,2.2,6.0,74,0.00,,,0.00,WUHU216EASYWX,2013-04-30 10:07:00,
2013-04-30 05:08:00,65.5,57.0,29.77,South,180,2.2,6.0,74,0.00,,,0.00,WUHU216EASYWX,2013-04-30 10:08:00,
2013-04-30 05:09:00,65.1,57.0,29.77,South,180,4.5,7.6,75,0.00,,,0.00,WUHU216EASYWX,2013-04-30 10:09:00,
2013-04-30 05:10:00,65.1,57.0,29.77,South,180,4.5,7.6,75,0.00,,,0.00,WUHU216EASYWX,2013-04-30 10:10:00,
2013-04-30 05:11:00,65.1,57.0,29.77,South,180,4.5,7.6,75,0.00,,,0.00,WUHU216EASYWX,2013-04-30 10:11:00,
2013-04-30 05:12:00,65.1,57.0,29.77,South,180,4.5,7.6,75,0.00,,,0.00,WUHU216EASYWX,2013-04-30 10:12:00,
2013-04-30 05:13:00,65.1,57.0,29.77,South,180,4.5,7.6,75,0.00,,,0.00,WUHU216EASYWX,2013-04-30 10:13:00,
2013-04-30 05:14:00,65.1,57.0,29.78,SE,135,3.8,7.6,75,0.00,,,0.00,WUHU216EASYWX,2013-04-30 10:14:00,
2013-04-30 05:15:00,65.1,57.0,29.78,SE,135,3.8,7.6,75,0.00,,,0.00,WUHU216EASYWX,2013-04-30 10:15:00,
2013-04-30 05:17:00,65.1,57.0,29.78,SE,135,3.8,7.6,75,0.00,,,0.00,WUHU216EASYWX,2013-04-30 10:17:00,
2013-04-30 05:19:00,64.9,56.8,29.78,South,180,3.8,7.6,75,0.00,,,0.00,WUHU216EASYWX,2013-04-30 10:19:00,
2013-04-30 05:21:00,64.9,56.8,29.78,South,180,3.8,7.6,75,0.00,,,0.00,WUHU216EASYWX,2013-04-30 10:21:00,
2013-04-30 05:22:00,64.9,56.8,29.78,South,180,3.8,7.6,75,0.00,,,0.00,WUHU216EASYWX,2013-04-30 10:22:00,
2013-04-30 05:24:00,64.9,56.8,29.78,SW,225,3.1,7.6,75,0.00,,,0.00,WUHU216EASYWX,2013-04-30 10:24:00,
2013-04-30 05:26:00,64.9,56.8,29.78,SW,225,3.1,7.6,75,0.00,,,0.00,WUHU216EASYWX,2013-04-30 10:26:00,
2013-04-30 05:27:00,64.9,56.8,29.78,SW,225,3.1,7.6,75,0.00,,,0.00,WUHU216EASYWX,2013-04-30 10:27:00,
2013-04-30 05:29:00,64.9,56.8,29.78,SW,225,0.7,5.4,75,0.00,,,0.00,WUHU216EASYWX,2013-04-30 10:29:00,
2013-04-30 05:30:00,64.9,56.8,29.78,SW,225,0.7,5.4,75,0.00,,,0.00,WUHU216EASYWX,2013-04-30 10:30:00,
2013-04-30 05:31:00,64.9,56.8,29.78,SW,225,0.7,5.4,75,0.00,,,0.00,WUHU216EASYWX,2013-04-30 10:31:00,
2013-04-30 05:32:00,64.9,56.8,29.78,SW,225,0.7,5.4,75,0.00,,,0.00,WUHU216EASYWX,2013-04-30 10:32:00,
2013-04-30 05:34:00,64.8,56.7,29.79,South,180,1.6,3.8,75,0.00,,,0.00,WUHU216EASYWX,2013-04-30 10:34:00,
2013-04-30 05:35:00,64.8,56.7,29.79,South,180,1.6,3.8,75,0.00,,,0.00,WUHU216EASYWX,2013-04-30 10:35:00,
2013-04-30 05:36:00,64.8,56.7,29.79,South,180,1.6,3.8,75,0.00,,,0.00,WUHU216EASYWX,2013-04-30 10:36:00,
2013-04-30 05:37:00,64.8,56.7,29.79,South,180,1.6,3.8,75,0.00,,,0.00,WUHU216EASYWX,2013-04-30 10:37:00,
2013-04-30 05:38:00,64.8,56.7,29.79,South,180,1.6,3.8,75,0.00,,,0.00,WUHU216EASYWX,2013-04-30 10:38:00,
2013-04-30 05:39:00,64.8,56.7,29.79,SE,135,1.6,3.1,75,0.00,,,0.00,WUHU216EASYWX,2013-04-30 10:39:00,
2013-04-30 05:40:00,64.8,56.7,29.79,SE,135,1.6,3.1,75,0.00,,,0.00,WUHU216EASYWX,2013-04-30 10:40:00,
2013-04-30 05:41:00,64.8,56.7,29.79,SE,135,1.6,3.1,75,0.00,,,0.00,WUHU216EASYWX,2013-04-30 10:41:00,
2013-04-30 05:42:00,64.8,56.7,29.79,SE,135,1.6,3.1,75,0.00,,,0.00,WUHU216EASYWX,2013-04-30 10:42:00,
2013-04-30 05:43:00,64.8,56.7,29.79,SE,135,1.6,3.1,75,0.00,,,0.00,WUHU216EASYWX,2013-04-30 10:43:00,
2013-04-30 05:45:00,64.6,56.5,29.79,South,180,3.1,5.4,75,0.00,,,0.00,WUHU216EASYWX,2013-04-30 10:45:00,
2013-04-30 05:46:00,64.6,56.5,29.79,South,180,3.1,5.4,75,0.00,,,0.00,WUHU216EASYWX,2013-04-30 10:46:00,
2013-04-30 05:47:00,64.6,56.5,29.79,South,180,3.1,5.4,75,0.00,,,0.00,WUHU216EASYWX,2013-04-30 10:47:00,
2013-04-30 05:48:00,64.6,56.5,29.79,South,180,3.1,5.4,75,0.00,,,0.00,WUHU216EASYWX,2013-04-30 10:48:00,
2013-04-30 05:50:00,64.6,56.5,29.79,SE,135,3.1,6.0,75,0.00,,,0.00,WUHU216EASYWX,2013-04-30 10:50:00,
2013-04-30 05:51:00,64.6,56.5,29.79,SE,135,3.1,6.0,75,0.00,,,0.00,WUHU216EASYWX,2013-04-30 10:51:00,
2013-04-30 05:52:00,64.6,56.5,29.79,SE,135,3.1,6.0,75,0.00,,,0.00,WUHU216EASYWX,2013-04-30 10:52:00,
2013-04-30 05:53:00,64.6,56.5,29.79,SE,135,3.1,6.0,75,0.00,,,0.00,WUHU216EASYWX,2013-04-30 10:53:00,
2013-04-30 05:55:00,64.8,56.7,29.79,East,90,3.1,6.0,75,0.00,,,0.00,WUHU216EASYWX,2013-04-30 10:55:00,
2013-04-30 05:56:00,64.8,56.7,29.79,East,90,3.1,6.0,75,0.00,,,0.00,WUHU216EASYWX,2013-04-30 10:56:00,
2013-04-30 05:57:00,64.8,56.7,29.79,East,90,3.1,6.0,75,0.00,,,0.00,WUHU216EASYWX,2013-04-30 10:57:00,
2013-04-30 05:58:00,64.8,56.7,29.79,East,90,3.1,6.0,75,0.00,,,0.00,WUHU216EASYWX,2013-04-30 10:58:00,
2013-04-30 06:00:00,64.6,56.5,29.79,SE,135,3.8,6.0,75,0.00,,,0.00,WUHU216EASYWX,2013-04-30 11:00:00,
2013-04-30 06:01:00,64.6,56.5,29.79,SE,135,3.8,6.0,75,0.00,,,0.00,WUHU216EASYWX,2013-04-30 11:01:00,
2013-04-30 06:03:00,64.6,56.5,29.79,SE,135,3.8,6.0,75,0.00,,,0.00,WUHU216EASYWX,2013-04-30 11:03:00,
2013-04-30 06:05:00,64.8,56.7,29.79,South,180,2.2,6.0,75,0.00,,,0.00,WUHU216EASYWX,2013-04-30 11:05:00,
2013-04-30 06:06:00,64.8,56.7,29.79,South,180,2.2,6.0,75,0.00,,,0.00,WUHU216EASYWX,2013-04-30 11:06:00,
2013-04-30 06:08:00,64.8,56.7,29.79,South,180,2.2,6.0,75,0.00,,,0.00,WUHU216EASYWX,2013-04-30 11:08:00,
2013-04-30 06:10:00,64.6,56.5,29.80,SE,135,3.1,6.0,75,0.00,,,0.00,WUHU216EASYWX,2013-04-30 11:10:00,
2013-04-30 06:11:00,64.6,56.5,29.80,SE,135,3.1,6.0,75,0.00,,,0.00,WUHU216EASYWX,2013-04-30 11:11:00,
2013-04-30 06:13:00,64.6,56.5,29.80,SE,135,3.1,6.0,75,0.00,,,0.00,WUHU216EASYWX,2013-04-30 11:13:00,
2013-04-30 06:15:00,64.4,55.9,29.80,SW,225,2.2,6.0,74,0.00,,,0.00,WUHU216EASYWX,2013-04-30 11:15:00,
2013-04-30 06:16:00,64.4,55.9,29.80,SW,225,2.2,6.0,74,0.00,,,0.00,WUHU216EASYWX,2013-04-30 11:16:00,
2013-04-30 06:18:00,64.4,55.9,29.80,SW,225,2.2,6.0,74,0.00,,,0.00,WUHU216EASYWX,2013-04-30 11:18:00,
2013-04-30 06:20:00,64.6,56.1,29.80,SE,135,5.4,9.2,74,0.00,,,0.00,WUHU216EASYWX,2013-04-30 11:20:00,
2013-04-30 06:21:00,64.6,56.1,29.80,SE,135,5.4,9.2,74,0.00,,,0.00,WUHU216EASYWX,2013-04-30 11:21:00,
2013-04-30 06:22:00,64.6,56.1,29.80,SE,135,5.4,9.2,74,0.00,,,0.00,WUHU216EASYWX,2013-04-30 11:22:00,
2013-04-30 06:23:00,64.6,56.1,29.80,SE,135,5.4,9.2,74,0.00,,,0.00,WUHU216EASYWX,2013-04-30 11:23:00,
2013-04-30 06:24:00,64.6,56.1,29.80,SE,135,5.4,9.2,74,0.00,,,0.00,WUHU216EASYWX,2013-04-30 11:24:00,
2013-04-30 06:25:00,64.6,56.1,29.80,SE,135,1.6,9.2,74,0.00,,,0.00,WUHU216EASYWX,2013-04-30 11:25:00,
2013-04-30 06:27:00,64.6,56.1,29.80,SE,135,1.6,9.2,74,0.00,,,0.00,WUHU216EASYWX,2013-04-30 11:27:00,
2013-04-30 06:29:00,64.6,56.1,29.80,SE,135,1.6,9.2,74,0.00,,,0.00,WUHU216EASYWX,2013-04-30 11:29:00,
2013-04-30 06:30:00,64.6,56.1,29.80,SW,225,3.8,6.9,74,0.00,,,0.00,WUHU216EASYWX,2013-04-30 11:30:00,
2013-04-30 06:32:00,64.6,56.1,29.80,SW,225,3.8,6.9,74,0.00,,,0.00,WUHU216EASYWX,2013-04-30 11:32:00,
2013-04-30 06:34:00,64.6,56.1,29.80,South,180,2.2,6.9,74,0.00,,,0.00,WUHU216EASYWX,2013-04-30 11:34:00,
2013-04-30 06:35:00,64.6,56.1,29.80,South,180,2.2,6.9,74,0.00,,,0.00,WUHU216EASYWX,2013-04-30 11:35:00,
2013-04-30 06:37:00,64.6,56.1,29.80,South,180,2.2,6.9,74,0.00,,,0.00,WUHU216EASYWX,2013-04-30 11:37:00,
2013-04-30 06:39:00,64.4,55.9,29.80,SE,135,1.6,6.0,74,0.00,,,0.00,WUHU216EASYWX,2013-04-30 11:39:00,
2013-04-30 06:41:00,64.4,55.9,29.80,SE,135,1.6,6.0,74,0.00,,,0.00,WUHU216EASYWX,2013-04-30 11:41:00,
2013-04-30 06:42:00,64.4,55.9,29.80,SE,135,1.6,6.0,74,0.00,,,0.00,WUHU216EASYWX,2013-04-30 11:42:00,
2013-04-30 06:44:00,64.4,55.9,29.80,South,180,3.1,5.4,74,0.00,,,0.00,WUHU216EASYWX,2013-04-30 11:44:00,
2013-04-30 06:46:00,64.4,55.9,29.80,South,180,3.1,5.4,74,0.00,,,0.00,WUHU216EASYWX,2013-04-30 11:46:00,
2013-04-30 06:47:00,64.4,55.9,29.80,South,180,3.1,5.4,74,0.00,,,0.00,WUHU216EASYWX,2013-04-30 11:47:00,
2013-04-30 06:49:00,64.2,55.8,29.80,NE,45,2.2,5.4,74,0.00,,,0.00,WUHU216EASYWX,2013-04-30 11:49:00,
2013-04-30 06:51:00,64.2,55.8,29.80,NE,45,2.2,5.4,74,0.00,,,0.00,WUHU216EASYWX,2013-04-30 11:51:00,
2013-04-30 06:52:00,64.2,55.8,29.80,NE,45,2.2,5.4,74,0.00,,,0.00,WUHU216EASYWX,2013-04-30 11:52:00,
2013-04-30 06:54:00,64.2,55.8,29.81,South,180,3.8,6.0,74,0.00,,,0.00,WUHU216EASYWX,2013-04-30 11:54:00,
2013-04-30 06:55:00,64.2,55.8,29.81,South,180,3.8,6.0,74,0.00,,,0.00,WUHU216EASYWX,2013-04-30 11:55:00,
2013-04-30 06:56:00,64.2,55.8,29.81,South,180,3.8,6.0,74,0.00,,,0.00,WUHU216EASYWX,2013-04-30 11:56:00,
2013-04-30 06:58:00,64.2,55.8,29.81,South,180,3.8,6.0,74,0.00,,,0.00,WUHU216EASYWX,2013-04-30 11:58:00,
2013-04-30 06:59:00,64.2,55.8,29.81,SE,135,2.2,6.0,74,0.00,,,0.00,WUHU216EASYWX,2013-04-30 11:59:00,
2013-04-30 07:00:00,64.2,55.8,29.81,SE,135,2.2,6.0,74,0.00,,,0.00,WUHU216EASYWX,2013-04-30 12:00:00,
2013-04-30 07:01:00,64.2,55.8,29.81,SE,135,2.2,6.0,74,0.00,,,0.00,WUHU216EASYWX,2013-04-30 12:01:00,
2013-04-30 07:03:00,64.2,55.8,29.81,SE,135,2.2,6.0,74,0.00,,,0.00,WUHU216EASYWX,2013-04-30 12:03:00,
2013-04-30 07:04:00,64.2,55.8,29.81,SE,135,3.1,5.4,74,0.00,,,0.00,WUHU216EASYWX,2013-04-30 12:04:00,
2013-04-30 07:05:00,64.2,55.8,29.81,SE,135,3.1,5.4,74,0.00,,,0.00,WUHU216EASYWX,2013-04-30 12:05:00,
2013-04-30 07:06:00,64.2,55.8,29.81,SE,135,3.1,5.4,74,0.00,,,0.00,WUHU216EASYWX,2013-04-30 12:06:00,
2013-04-30 07:08:00,64.2,55.8,29.81,SE,135,3.1,5.4,74,0.00,,,0.00,WUHU216EASYWX,2013-04-30 12:08:00,
2013-04-30 07:10:00,64.4,55.6,29.81,South,180,3.8,7.6,73,0.00,,,0.00,WUHU216EASYWX,2013-04-30 12:10:00,
2013-04-30 07:11:00,64.4,55.6,29.81,South,180,3.8,7.6,73,0.00,,,0.00,WUHU216EASYWX,2013-04-30 12:11:00,
2013-04-30 07:13:00,64.4,55.6,29.81,South,180,3.8,7.6,73,0.00,,,0.00,WUHU216EASYWX,2013-04-30 12:13:00,
2013-04-30 07:15:00,64.6,55.8,29.81,South,180,4.5,7.6,73,0.00,,,0.00,WUHU216EASYWX,2013-04-30 12:15:00,
2013-04-30 07:17:00,64.6,55.8,29.81,South,180,4.5,7.6,73,0.00,,,0.00,WUHU216EASYWX,2013-04-30 12:17:00,
2013-04-30 07:18:00,64.6,55.8,29.81,South,180,4.5,7.6,73,0.00,,,0.00,WUHU216EASYWX,2013-04-30 12:18:00,
2013-04-30 07:20:00,64.8,55.6,29.81,SE,135,3.1,6.9,72,0.00,,,0.00,WUHU216EASYWX,2013-04-30 12:20:00,
2013-04-30 07:22:00,64.8,55.6,29.81,SE,135,3.1,6.9,72,0.00,,,0.00,WUHU216EASYWX,2013-04-30 12:22:00,
2013-04-30 07:23:00,64.8,55.6,29.81,SE,135,3.1,6.9,72,0.00,,,0.00,WUHU216EASYWX,2013-04-30 12:23:00,
2013-04-30 07:24:00,65.1,55.9,29.81,SE,135,3.8,7.6,72,0.00,,,0.00,WUHU216EASYWX,2013-04-30 12:24:00,
2013-04-30 07:25:00,65.1,55.9,29.81,SE,135,3.8,7.6,72,0.00,,,0.00,WUHU216EASYWX,2013-04-30 12:25:00,
2013-04-30 07:27:00,65.1,55.9,29.81,SE,135,3.8,7.6,72,0.00,,,0.00,WUHU216EASYWX,2013-04-30 12:27:00,
2013-04-30 07:29:00,65.5,55.9,29.81,South,180,3.8,7.6,71,0.00,,,0.00,WUHU216EASYWX,2013-04-30 12:29:00,
2013-04-30 07:30:00,65.5,55.9,29.81,South,180,3.8,7.6,71,0.00,,,0.00,WUHU216EASYWX,2013-04-30 12:30:00,
2013-04-30 07:33:00,65.5,55.9,29.81,South,180,3.8,7.6,71,0.00,,,0.00,WUHU216EASYWX,2013-04-30 12:33:00,
2013-04-30 07:34:00,65.7,56.1,29.81,South,180,2.2,5.4,71,0.00,,,0.00,WUHU216EASYWX,2013-04-30 12:34:00,
2013-04-30 07:35:00,65.7,56.1,29.81,South,180,2.2,5.4,71,0.00,,,0.00,WUHU216EASYWX,2013-04-30 12:35:00,
2013-04-30 07:36:00,65.7,56.1,29.81,South,180,2.2,5.4,71,0.00,,,0.00,WUHU216EASYWX,2013-04-30 12:36:00,
2013-04-30 07:38:00,65.7,56.1,29.81,South,180,2.2,5.4,71,0.00,,,0.00,WUHU216EASYWX,2013-04-30 12:38:00,
2013-04-30 07:40:00,66.4,56.3,29.81,SW,225,2.2,4.5,70,0.00,,,0.00,WUHU216EASYWX,2013-04-30 12:40:00,
2013-04-30 07:41:00,66.4,56.3,29.81,SW,225,2.2,4.5,70,0.00,,,0.00,WUHU216EASYWX,2013-04-30 12:41:00,
2013-04-30 07:43:00,66.4,56.3,29.81,SW,225,2.2,4.5,70,0.00,,,0.00,WUHU216EASYWX,2013-04-30 12:43:00,
2013-04-30 07:45:00,66.9,56.5,29.81,East,90,3.1,5.4,69,0.00,,,0.00,WUHU216EASYWX,2013-04-30 12:45:00,
2013-04-30 07:46:00,66.9,56.5,29.81,East,90,3.1,5.4,69,0.00,,,0.00,WUHU216EASYWX,2013-04-30 12:46:00,
2013-04-30 07:48:00,66.9,56.5,29.81,East,90,3.1,5.4,69,0.00,,,0.00,WUHU216EASYWX,2013-04-30 12:48:00,
2013-04-30 07:50:00,67.1,56.7,29.82,SE,135,3.1,5.4,69,0.00,,,0.00,WUHU216EASYWX,2013-04-30 12:50:00,
2013-04-30 07:51:00,67.1,56.7,29.82,SE,135,3.1,5.4,69,0.00,,,0.00,WUHU216EASYWX,2013-04-30 12:51:00,
2013-04-30 07:52:00,67.1,56.7,29.82,SE,135,3.1,5.4,69,0.00,,,0.00,WUHU216EASYWX,2013-04-30 12:52:00,
2013-04-30 07:53:00,67.1,56.7,29.82,SE,135,3.1,5.4,69,0.00,,,0.00,WUHU216EASYWX,2013-04-30 12:53:00,
2013-04-30 07:55:00,67.1,56.3,29.81,South,180,3.1,6.0,68,0.00,,,0.00,WUHU216EASYWX,2013-04-30 12:55:00,
2013-04-30 07:56:00,67.1,56.3,29.81,South,180,3.1,6.0,68,0.00,,,0.00,WUHU216EASYWX,2013-04-30 12:56:00,
2013-04-30 07:57:00,67.1,56.3,29.81,South,180,3.1,6.0,68,0.00,,,0.00,WUHU216EASYWX,2013-04-30 12:57:00,
2013-04-30 07:58:00,67.1,56.3,29.81,South,180,3.1,6.0,68,0.00,,,0.00,WUHU216EASYWX,2013-04-30 12:58:00,
2013-04-30 08:01:00,67.3,56.5,29.81,SE,135,3.8,6.0,68,0.00,,,0.00,WUHU216EASYWX,2013-04-30 13:01:00,
2013-04-30 08:02:00,67.3,56.5,29.81,SE,135,3.8,6.0,68,0.00,,,0.00,WUHU216EASYWX,2013-04-30 13:02:00,
2013-04-30 08:04:00,67.3,56.5,29.81,SE,135,3.1,6.0,68,0.00,,,0.00,WUHU216EASYWX,2013-04-30 13:04:00,
2013-04-30 08:06:00,67.3,56.5,29.81,SE,135,3.1,6.0,68,0.00,,,0.00,WUHU216EASYWX,2013-04-30 13:06:00,
2013-04-30 08:07:00,67.3,56.5,29.81,SE,135,3.1,6.0,68,0.00,,,0.00,WUHU216EASYWX,2013-04-30 13:07:00,
2013-04-30 08:09:00,68.2,56.8,29.81,SSE,158,3.8,6.0,67,0.00,,,0.00,WUHU216EASYWX,2013-04-30 13:09:00,
2013-04-30 08:11:00,68.2,56.8,29.81,SSE,158,3.8,6.0,67,0.00,,,0.00,WUHU216EASYWX,2013-04-30 13:11:00,
2013-04-30 08:12:00,68.2,56.8,29.81,SSE,158,3.8,6.0,67,0.00,,,0.00,WUHU216EASYWX,2013-04-30 13:12:00,
2013-04-30 08:14:00,69.1,57.4,29.81,SW,225,2.2,6.0,66,0.00,,,0.00,WUHU216EASYWX,2013-04-30 13:14:00,
2013-04-30 08:16:00,69.1,57.4,29.81,SW,225,2.2,6.0,66,0.00,,,0.00,WUHU216EASYWX,2013-04-30 13:16:00,
2013-04-30 08:17:00,69.1,57.4,29.81,SW,225,2.2,6.0,66,0.00,,,0.00,WUHU216EASYWX,2013-04-30 13:17:00,
2013-04-30 08:20:00,69.4,57.2,29.81,South,180,3.1,6.0,65,0.00,,,0.00,WUHU216EASYWX,2013-04-30 13:20:00,
2013-04-30 08:21:00,69.4,57.2,29.81,South,180,3.1,6.0,65,0.00,,,0.00,WUHU216EASYWX,2013-04-30 13:21:00,
2013-04-30 08:22:00,69.4,57.2,29.81,South,180,3.1,6.0,65,0.00,,,0.00,WUHU216EASYWX,2013-04-30 13:22:00,
2013-04-30 08:23:00,69.4,57.2,29.81,South,180,3.1,6.0,65,0.00,,,0.00,WUHU216EASYWX,2013-04-30 13:23:00,
2013-04-30 08:25:00,69.6,57.0,29.82,SW,225,3.8,9.2,64,0.00,,,0.00,WUHU216EASYWX,2013-04-30 13:25:00,
2013-04-30 08:26:00,69.6,57.0,29.82,SW,225,3.8,9.2,64,0.00,,,0.00,WUHU216EASYWX,2013-04-30 13:26:00,
2013-04-30 08:27:00,69.6,57.0,29.82,SW,225,3.8,9.2,64,0.00,,,0.00,WUHU216EASYWX,2013-04-30 13:27:00,
2013-04-30 08:28:00,69.6,57.0,29.82,SW,225,3.8,9.2,64,0.00,,,0.00,WUHU216EASYWX,2013-04-30 13:28:00,
2013-04-30 08:30:00,70.2,57.4,29.81,South,180,3.1,9.2,64,0.00,,,0.00,WUHU216EASYWX,2013-04-30 13:30:00,
2013-04-30 08:31:00,70.2,57.4,29.81,South,180,3.1,9.2,64,0.00,,,0.00,WUHU216EASYWX,2013-04-30 13:31:00,
2013-04-30 08:32:00,70.2,57.4,29.81,South,180,3.1,9.2,64,0.00,,,0.00,WUHU216EASYWX,2013-04-30 13:32:00,
2013-04-30 08:33:00,70.2,57.4,29.81,South,180,3.1,9.2,64,0.00,,,0.00,WUHU216EASYWX,2013-04-30 13:33:00,
2013-04-30 08:35:00,70.0,57.4,29.82,West,270,2.2,6.0,64,0.00,,,0.00,WUHU216EASYWX,2013-04-30 13:35:00,
2013-04-30 08:36:00,70.0,57.4,29.82,West,270,2.2,6.0,64,0.00,,,0.00,WUHU216EASYWX,2013-04-30 13:36:00,
2013-04-30 08:37:00,70.0,57.4,29.82,West,270,2.2,6.0,64,0.00,,,0.00,WUHU216EASYWX,2013-04-30 13:37:00,
2013-04-30 08:38:00,70.0,57.4,29.82,West,270,2.2,6.0,64,0.00,,,0.00,WUHU216EASYWX,2013-04-30 13:38:00,
2013-04-30 08:39:00,70.3,57.6,29.82,SE,135,2.2,5.4,64,0.00,,,0.00,WUHU216EASYWX,2013-04-30 13:39:00,
2013-04-30 08:40:00,70.3,57.6,29.82,SE,135,2.2,5.4,64,0.00,,,0.00,WUHU216EASYWX,2013-04-30 13:40:00,
2013-04-30 08:42:00,70.3,57.6,29.82,SE,135,2.2,5.4,64,0.00,,,0.00,WUHU216EASYWX,2013-04-30 13:42:00,
2013-04-30 08:43:00,70.3,57.6,29.82,SE,135,2.2,5.4,64,0.00,,,0.00,WUHU216EASYWX,2013-04-30 13:43:00,
2013-04-30 08:46:00,70.3,57.6,29.82,SE,135,2.2,5.4,64,0.00,,,0.00,WUHU216EASYWX,2013-04-30 13:46:00,
2013-04-30 08:47:00,70.3,57.6,29.82,SE,135,2.2,5.4,64,0.00,,,0.00,WUHU216EASYWX,2013-04-30 13:47:00,
2013-04-30 08:48:00,70.3,57.6,29.82,SE,135,2.2,5.4,64,0.00,,,0.00,WUHU216EASYWX,2013-04-30 13:48:00,
2013-04-30 08:51:00,71.2,57.6,29.82,SE,135,3.1,6.0,62,0.00,,,0.00,WUHU216EASYWX,2013-04-30 13:51:00,
2013-04-30 08:52:00,71.2,57.6,29.82,SE,135,3.1,6.0,62,0.00,,,0.00,WUHU216EASYWX,2013-04-30 13:52:00,
2013-04-30 08:53:00,71.2,57.6,29.82,SE,135,3.1,6.0,62,0.00,,,0.00,WUHU216EASYWX,2013-04-30 13:53:00,
2013-04-30 08:54:00,71.4,57.7,29.81,SW,225,3.8,7.6,62,0.00,,,0.00,WUHU216EASYWX,2013-04-30 13:54:00,
2013-04-30 08:56:00,71.4,57.7,29.81,SW,225,3.8,7.6,62,0.00,,,0.00,WUHU216EASYWX,2013-04-30 13:56:00,
2013-04-30 08:57:00,71.4,57.7,29.81,SW,225,3.8,7.6,62,0.00,,,0.00,WUHU216EASYWX,2013-04-30 13:57:00,
2013-04-30 08:58:00,71.4,57.7,29.81,SW,225,3.8,7.6,62,0.00,,,0.00,WUHU216EASYWX,2013-04-30 13:58:00,
2013-04-30 08:59:00,72.0,58.3,29.81,South,180,3.8,7.6,62,0.00,,,0.00,WUHU216EASYWX,2013-04-30 13:59:00,
2013-04-30 09:01:00,72.0,58.3,29.81,South,180,3.8,7.6,62,0.00,,,0.00,WUHU216EASYWX,2013-04-30 14:01:00,
2013-04-30 09:02:00,72.0,58.3,29.81,South,180,3.8,7.6,62,0.00,,,0.00,WUHU216EASYWX,2013-04-30 14:02:00,
2013-04-30 09:03:00,72.0,58.3,29.81,South,180,3.8,7.6,62,0.00,,,0.00,WUHU216EASYWX,2013-04-30 14:03:00,
2013-04-30 09:04:00,72.0,58.3,29.81,South,180,3.8,7.6,62,0.00,,,0.00,WUHU216EASYWX,2013-04-30 14:04:00,
2013-04-30 09:06:00,72.1,57.9,29.81,NE,45,5.4,9.2,61,0.00,,,0.00,WUHU216EASYWX,2013-04-30 14:06:00,
2013-04-30 09:07:00,72.1,57.9,29.81,NE,45,5.4,9.2,61,0.00,,,0.00,WUHU216EASYWX,2013-04-30 14:07:00,
2013-04-30 09:09:00,72.1,57.9,29.81,NE,45,5.4,9.2,61,0.00,,,0.00,WUHU216EASYWX,2013-04-30 14:09:00,
2013-04-30 09:11:00,72.5,58.3,29.82,SSE,158,4.5,9.2,61,0.00,,,0.00,WUHU216EASYWX,2013-04-30 14:11:00,
2013-04-30 09:12:00,72.5,58.3,29.82,SSE,158,4.5,9.2,61,0.00,,,0.00,WUHU216EASYWX,2013-04-30 14:12:00,
2013-04-30 09:13:00,72.5,58.3,29.82,SSE,158,4.5,9.2,61,0.00,,,0.00,WUHU216EASYWX,2013-04-30 14:13:00,
2013-04-30 09:14:00,72.5,58.3,29.82,SSE,158,4.5,9.2,61,0.00,,,0.00,WUHU216EASYWX,2013-04-30 14:14:00,
2013-04-30 09:16:00,72.9,58.6,29.82,SW,225,6.9,12.1,61,0.00,,,0.00,WUHU216EASYWX,2013-04-30 14:16:00,
2013-04-30 09:18:00,72.9,58.6,29.82,SW,225,6.9,12.1,61,0.00,,,0.00,WUHU216EASYWX,2013-04-30 14:18:00,
2013-04-30 09:19:00,73.4,58.6,29.81,NW,315,4.5,12.1,60,0.00,,,0.00,WUHU216EASYWX,2013-04-30 14:19:00,
2013-04-30 09:21:00,73.4,58.6,29.81,NW,315,4.5,12.1,60,0.00,,,0.00,WUHU216EASYWX,2013-04-30 14:21:00,
2013-04-30 09:23:00,73.4,58.6,29.81,NW,315,4.5,12.1,60,0.00,,,0.00,WUHU216EASYWX,2013-04-30 14:23:00,
2013-04-30 09:24:00,73.9,58.8,29.81,South,180,8.3,15.9,59,0.00,,,0.00,WUHU216EASYWX,2013-04-30 14:24:00,
2013-04-30 09:26:00,73.9,58.8,29.81,South,180,8.3,15.9,59,0.00,,,0.00,WUHU216EASYWX,2013-04-30 14:26:00,
2013-04-30 09:28:00,73.9,58.8,29.81,South,180,8.3,15.9,59,0.00,,,0.00,WUHU216EASYWX,2013-04-30 14:28:00,
2013-04-30 09:29:00,74.1,59.0,29.81,NW,315,5.4,15.9,59,0.00,,,0.00,WUHU216EASYWX,2013-04-30 14:29:00,
2013-04-30 09:32:00,74.1,59.0,29.81,NW,315,5.4,15.9,59,0.00,,,0.00,WUHU216EASYWX,2013-04-30 14:32:00,
2013-04-30 09:33:00,74.1,59.0,29.81,NW,315,5.4,15.9,59,0.00,,,0.00,WUHU216EASYWX,2013-04-30 14:33:00,
2013-04-30 09:34:00,74.1,58.5,29.81,SW,225,7.6,12.1,58,0.00,,,0.00,WUHU216EASYWX,2013-04-30 14:34:00,
2013-04-30 09:37:00,74.1,58.5,29.81,SW,225,7.6,12.1,58,0.00,,,0.00,WUHU216EASYWX,2013-04-30 14:37:00,
2013-04-30 09:38:00,74.1,58.5,29.81,SW,225,7.6,12.1,58,0.00,,,0.00,WUHU216EASYWX,2013-04-30 14:38:00,
2013-04-30 09:39:00,74.7,59.0,29.81,NW,315,5.4,12.1,58,0.00,,,0.00,WUHU216EASYWX,2013-04-30 14:39:00,
2013-04-30 09:40:00,74.7,59.0,29.81,NW,315,5.4,12.1,58,0.00,,,0.00,WUHU216EASYWX,2013-04-30 14:40:00,
2013-04-30 09:42:00,74.7,59.0,29.81,NW,315,5.4,12.1,58,0.00,,,0.00,WUHU216EASYWX,2013-04-30 14:42:00,
2013-04-30 09:43:00,74.7,59.0,29.81,NW,315,5.4,12.1,58,0.00,,,0.00,WUHU216EASYWX,2013-04-30 14:43:00,
2013-04-30 09:44:00,75.7,59.5,29.81,SE,135,6.0,11.4,57,0.00,,,0.00,WUHU216EASYWX,2013-04-30 14:44:00,
2013-04-30 09:45:00,75.7,59.5,29.81,SE,135,6.0,11.4,57,0.00,,,0.00,WUHU216EASYWX,2013-04-30 14:45:00,
2013-04-30 09:47:00,75.7,59.5,29.81,SE,135,6.0,11.4,57,0.00,,,0.00,WUHU216EASYWX,2013-04-30 14:47:00,
2013-04-30 09:49:00,76.5,59.2,29.81,North,0,6.9,11.4,55,0.00,,,0.00,WUHU216EASYWX,2013-04-30 14:49:00,
2013-04-30 09:50:00,76.5,59.2,29.81,North,0,6.9,11.4,55,0.00,,,0.00,WUHU216EASYWX,2013-04-30 14:50:00,
2013-04-30 09:52:00,76.5,59.2,29.81,North,0,6.9,11.4,55,0.00,,,0.00,WUHU216EASYWX,2013-04-30 14:52:00,
2013-04-30 09:54:00,75.6,59.4,29.81,South,180,6.0,11.4,57,0.00,,,0.00,WUHU216EASYWX,2013-04-30 14:54:00,
2013-04-30 09:55:00,75.6,59.4,29.81,South,180,6.0,11.4,57,0.00,,,0.00,WUHU216EASYWX,2013-04-30 14:55:00,
2013-04-30 09:56:00,75.6,59.4,29.81,South,180,6.0,11.4,57,0.00,,,0.00,WUHU216EASYWX,2013-04-30 14:56:00,
2013-04-30 09:57:00,75.6,59.4,29.81,South,180,6.0,11.4,57,0.00,,,0.00,WUHU216EASYWX,2013-04-30 14:57:00,
2013-04-30 09:59:00,75.9,59.7,29.80,SW,225,6.0,12.1,57,0.00,,,0.00,WUHU216EASYWX,2013-04-30 14:59:00,
2013-04-30 10:00:00,75.9,59.7,29.80,SW,225,6.0,12.1,57,0.00,,,0.00,WUHU216EASYWX,2013-04-30 15:00:00,
2013-04-30 10:01:00,75.9,59.7,29.80,SW,225,6.0,12.1,57,0.00,,,0.00,WUHU216EASYWX,2013-04-30 15:01:00,
2013-04-30 10:02:00,75.9,59.7,29.80,SW,225,6.0,12.1,57,0.00,,,0.00,WUHU216EASYWX,2013-04-30 15:02:00,
2013-04-30 10:04:00,75.6,58.8,29.80,SW,225,10.8,16.8,56,0.00,,,0.00,WUHU216EASYWX,2013-04-30 15:04:00,
2013-04-30 10:05:00,75.6,58.8,29.80,SW,225,10.8,16.8,56,0.00,,,0.00,WUHU216EASYWX,2013-04-30 15:05:00,
2013-04-30 10:06:00,75.6,58.8,29.80,SW,225,10.8,16.8,56,0.00,,,0.00,WUHU216EASYWX,2013-04-30 15:06:00,
2013-04-30 10:07:00,75.6,58.8,29.80,SW,225,10.8,16.8,56,0.00,,,0.00,WUHU216EASYWX,2013-04-30 15:07:00,
2013-04-30 10:10:00,77.0,59.7,29.80,South,180,5.4,16.8,55,0.00,,,0.00,WUHU216EASYWX,2013-04-30 15:10:00,
2013-04-30 10:11:00,77.0,59.7,29.80,South,180,5.4,16.8,55,0.00,,,0.00,WUHU216EASYWX,2013-04-30 15:11:00,
2013-04-30 10:12:00,77.0,59.7,29.80,South,180,5.4,16.8,55,0.00,,,0.00,WUHU216EASYWX,2013-04-30 15:12:00,
2013-04-30 10:15:00,76.5,59.2,29.80,NW,315,8.3,13.7,55,0.00,,,0.00,WUHU216EASYWX,2013-04-30 15:15:00,
2013-04-30 10:16:00,76.5,59.2,29.80,NW,315,8.3,13.7,55,0.00,,,0.00,WUHU216EASYWX,2013-04-30 15:16:00,
2013-04-30 10:17:00,76.5,59.2,29.80,NW,315,8.3,13.7,55,0.00,,,0.00,WUHU216EASYWX,2013-04-30 15:17:00,
2013-04-30 10:20:00,77.2,59.4,29.80,SE,135,8.3,17.5,54,0.00,,,0.00,WUHU216EASYWX,2013-04-30 15:20:00,
2013-04-30 10:21:00,77.2,59.4,29.80,SE,135,8.3,17.5,54,0.00,,,0.00,WUHU216EASYWX,2013-04-30 15:21:00,
2013-04-30 10:22:00,77.2,59.4,29.80,SE,135,8.3,17.5,54,0.00,,,0.00,WUHU216EASYWX,2013-04-30 15:22:00,
2013-04-30 10:23:00,77.2,59.4,29.80,SE,135,8.3,17.5,54,0.00,,,0.00,WUHU216EASYWX,2013-04-30 15:23:00,
2013-04-30 10:25:00,77.4,58.5,29.80,South,180,8.3,17.5,52,0.00,,,0.00,WUHU216EASYWX,2013-04-30 15:25:00,
2013-04-30 10:26:00,77.4,58.5,29.80,South,180,8.3,17.5,52,0.00,,,0.00,WUHU216EASYWX,2013-04-30 15:26:00,
2013-04-30 10:27:00,77.4,58.5,29.80,South,180,8.3,17.5,52,0.00,,,0.00,WUHU216EASYWX,2013-04-30 15:27:00,
2013-04-30 10:28:00,77.4,58.5,29.80,South,180,8.3,17.5,52,0.00,,,0.00,WUHU216EASYWX,2013-04-30 15:28:00,
2013-04-30 10:30:00,77.5,58.1,29.80,SW,225,5.4,16.8,51,0.00,,,0.00,WUHU216EASYWX,2013-04-30 15:30:00,
2013-04-30 10:31:00,77.5,58.1,29.80,SW,225,5.4,16.8,51,0.00,,,0.00,WUHU216EASYWX,2013-04-30 15:31:00,
2013-04-30 10:32:00,77.5,58.1,29.80,SW,225,5.4,16.8,51,0.00,,,0.00,WUHU216EASYWX,2013-04-30 15:32:00,
2013-04-30 10:33:00,77.5,58.1,29.80,SW,225,5.4,16.8,51,0.00,,,0.00,WUHU216EASYWX,2013-04-30 15:33:00,
2013-04-30 10:35:00,78.3,57.6,29.80,West,270,4.5,9.2,49,0.00,,,0.00,WUHU216EASYWX,2013-04-30 15:35:00,
2013-04-30 10:36:00,78.3,57.6,29.80,West,270,4.5,9.2,49,0.00,,,0.00,WUHU216EASYWX,2013-04-30 15:36:00,
2013-04-30 10:37:00,78.3,57.6,29.80,West,270,4.5,9.2,49,0.00,,,0.00,WUHU216EASYWX,2013-04-30 15:37:00,
2013-04-30 10:38:00,78.3,57.6,29.80,West,270,4.5,9.2,49,0.00,,,0.00,WUHU216EASYWX,2013-04-30 15:38:00,
2013-04-30 10:40:00,78.8,58.1,29.80,NW,315,7.6,13.7,49,0.00,,,0.00,WUHU216EASYWX,2013-04-30 15:40:00,
2013-04-30 10:42:00,78.8,58.1,29.80,NW,315,7.6,13.7,49,0.00,,,0.00,WUHU216EASYWX,2013-04-30 15:42:00,
2013-04-30 10:44:00,78.8,58.1,29.80,NW,315,7.6,13.7,49,0.00,,,0.00,WUHU216EASYWX,2013-04-30 15:44:00,
2013-04-30 10:45:00,78.4,57.7,29.80,North,0,4.5,13.7,49,0.00,,,0.00,WUHU216EASYWX,2013-04-30 15:45:00,
2013-04-30 10:47:00,78.4,57.7,29.80,North,0,4.5,13.7,49,0.00,,,0.00,WUHU216EASYWX,2013-04-30 15:47:00,
2013-04-30 10:49:00,78.4,57.7,29.80,North,0,4.5,13.7,49,0.00,,,0.00,WUHU216EASYWX,2013-04-30 15:49:00,
2013-04-30 10:51:00,78.3,57.0,29.80,SW,225,9.9,16.8,48,0.00,,,0.00,WUHU216EASYWX,2013-04-30 15:51:00,
2013-04-30 10:52:00,78.3,57.0,29.80,SW,225,9.9,16.8,48,0.00,,,0.00,WUHU216EASYWX,2013-04-30 15:52:00,
2013-04-30 10:53:00,78.3,57.0,29.80,SW,225,9.9,16.8,48,0.00,,,0.00,WUHU216EASYWX,2013-04-30 15:53:00,
2013-04-30 10:54:00,78.3,57.0,29.80,SW,225,9.9,16.8,48,0.00,,,0.00,WUHU216EASYWX,2013-04-30 15:54:00,
2013-04-30 10:56:00,79.2,57.9,29.79,SW,225,5.4,16.8,48,0.00,,,0.00,WUHU216EASYWX,2013-04-30 15:56:00,
2013-04-30 10:58:00,79.2,57.9,29.79,SW,225,5.4,16.8,48,0.00,,,0.00,WUHU216EASYWX,2013-04-30 15:58:00,
2013-04-30 10:59:00,79.0,56.5,29.80,SW,225,8.3,14.6,46,0.00,,,0.00,WUHU216EASYWX,2013-04-30 15:59:00,
2013-04-30 11:01:00,79.0,56.5,29.80,SW,225,8.3,14.6,46,0.00,,,0.00,WUHU216EASYWX,2013-04-30 16:01:00,
2013-04-30 11:03:00,79.0,56.5,29.80,SW,225,8.3,14.6,46,0.00,,,0.00,WUHU216EASYWX,2013-04-30 16:03:00,
2013-04-30 11:04:00,79.0,56.5,29.80,SW,225,8.3,14.6,46,0.00,,,0.00,WUHU216EASYWX,2013-04-30 16:04:00,
2013-04-30 11:05:00,79.2,56.7,29.80,East,90,6.9,14.6,46,0.00,,,0.00,WUHU216EASYWX,2013-04-30 16:05:00,
2013-04-30 11:07:00,79.2,56.7,29.80,East,90,6.9,14.6,46,0.00,,,0.00,WUHU216EASYWX,2013-04-30 16:07:00,
2013-04-30 11:08:00,79.2,56.7,29.80,East,90,6.9,14.6,46,0.00,,,0.00,WUHU216EASYWX,2013-04-30 16:08:00,
2013-04-30 11:09:00,79.0,55.2,29.80,NW,315,8.3,14.6,44,0.00,,,0.00,WUHU216EASYWX,2013-04-30 16:09:00,
2013-04-30 11:10:00,79.0,55.2,29.80,NW,315,8.3,14.6,44,0.00,,,0.00,WUHU216EASYWX,2013-04-30 16:10:00,
2013-04-30 11:11:00,79.0,55.2,29.80,NW,315,8.3,14.6,44,0.00,,,0.00,WUHU216EASYWX,2013-04-30 16:11:00,
2013-04-30 11:12:00,79.0,55.2,29.80,NW,315,8.3,14.6,44,0.00,,,0.00,WUHU216EASYWX,2013-04-30 16:12:00,
2013-04-30 11:14:00,78.8,55.8,29.80,South,180,10.8,20.6,45,0.00,,,0.00,WUHU216EASYWX,2013-04-30 16:14:00,
2013-04-30 11:15:00,78.8,55.8,29.80,South,180,10.8,20.6,45,0.00,,,0.00,WUHU216EASYWX,2013-04-30 16:15:00,
2013-04-30 11:16:00,78.8,55.8,29.80,South,180,10.8,20.6,45,0.00,,,0.00,WUHU216EASYWX,2013-04-30 16:16:00,
2013-04-30 11:17:00,78.8,55.8,29.80,South,180,10.8,20.6,45,0.00,,,0.00,WUHU216EASYWX,2013-04-30 16:17:00,
2013-04-30 11:19:00,79.9,57.4,29.79,South,180,3.1,20.6,46,0.00,,,0.00,WUHU216EASYWX,2013-04-30 16:19:00,
2013-04-30 11:20:00,79.9,57.4,29.79,South,180,3.1,20.6,46,0.00,,,0.00,WUHU216EASYWX,2013-04-30 16:20:00,
2013-04-30 11:21:00,79.9,57.4,29.79,South,180,3.1,20.6,46,0.00,,,0.00,WUHU216EASYWX,2013-04-30 16:21:00,
2013-04-30 11:22:00,79.9,57.4,29.79,South,180,3.1,20.6,46,0.00,,,0.00,WUHU216EASYWX,2013-04-30 16:22:00,
2013-04-30 11:24:00,80.1,56.3,29.80,South,180,8.3,13.0,44,0.00,,,0.00,WUHU216EASYWX,2013-04-30 16:24:00,
2013-04-30 11:25:00,80.1,56.3,29.80,South,180,8.3,13.0,44,0.00,,,0.00,WUHU216EASYWX,2013-04-30 16:25:00,
2013-04-30 11:26:00,80.1,56.3,29.80,South,180,8.3,13.0,44,0.00,,,0.00,WUHU216EASYWX,2013-04-30 16:26:00,
2013-04-30 11:27:00,80.1,56.3,29.80,South,180,8.3,13.0,44,0.00,,,0.00,WUHU216EASYWX,2013-04-30 16:27:00,
2013-04-30 11:29:00,80.2,57.0,29.79,NW,315,6.9,13.0,45,0.00,,,0.00,WUHU216EASYWX,2013-04-30 16:29:00,
2013-04-30 11:30:00,80.2,57.0,29.79,NW,315,6.9,13.0,45,0.00,,,0.00,WUHU216EASYWX,2013-04-30 16:30:00,
2013-04-30 11:31:00,80.2,57.0,29.79,NW,315,6.9,13.0,45,0.00,,,0.00,WUHU216EASYWX,2013-04-30 16:31:00,
2013-04-30 11:32:00,80.2,57.0,29.79,NW,315,6.9,13.0,45,0.00,,,0.00,WUHU216EASYWX,2013-04-30 16:32:00,
2013-04-30 11:34:00,80.4,55.2,29.79,South,180,8.3,14.6,42,0.00,,,0.00,WUHU216EASYWX,2013-04-30 16:34:00,
2013-04-30 11:35:00,80.4,55.2,29.79,South,180,8.3,14.6,42,0.00,,,0.00,WUHU216EASYWX,2013-04-30 16:35:00,
2013-04-30 11:36:00,80.4,55.2,29.79,South,180,8.3,14.6,42,0.00,,,0.00,WUHU216EASYWX,2013-04-30 16:36:00,
2013-04-30 11:37:00,80.4,55.2,29.79,South,180,8.3,14.6,42,0.00,,,0.00,WUHU216EASYWX,2013-04-30 16:37:00,
2013-04-30 11:38:00,80.4,55.2,29.79,South,180,8.3,14.6,42,0.00,,,0.00,WUHU216EASYWX,2013-04-30 16:38:00,
2013-04-30 11:40:00,81.1,54.7,29.79,South,180,8.3,14.6,40,0.00,,,0.00,WUHU216EASYWX,2013-04-30 16:40:00,
2013-04-30 11:41:00,81.1,54.7,29.79,South,180,8.3,14.6,40,0.00,,,0.00,WUHU216EASYWX,2013-04-30 16:41:00,
2013-04-30 11:42:00,81.1,54.7,29.79,South,180,8.3,14.6,40,0.00,,,0.00,WUHU216EASYWX,2013-04-30 16:42:00,
2013-04-30 11:43:00,81.1,54.7,29.79,South,180,8.3,14.6,40,0.00,,,0.00,WUHU216EASYWX,2013-04-30 16:43:00,
2013-04-30 11:45:00,80.8,54.9,29.79,SW,225,11.4,17.5,41,0.00,,,0.00,WUHU216EASYWX,2013-04-30 16:45:00,
2013-04-30 11:46:00,80.8,54.9,29.79,SW,225,11.4,17.5,41,0.00,,,0.00,WUHU216EASYWX,2013-04-30 16:46:00,
2013-04-30 11:47:00,80.8,54.9,29.79,SW,225,11.4,17.5,41,0.00,,,0.00,WUHU216EASYWX,2013-04-30 16:47:00,
2013-04-30 11:48:00,80.8,54.9,29.79,SW,225,11.4,17.5,41,0.00,,,0.00,WUHU216EASYWX,2013-04-30 16:48:00,
2013-04-30 11:50:00,81.3,55.4,29.79,SE,135,9.9,17.5,41,0.00,,,0.00,WUHU216EASYWX,2013-04-30 16:50:00,
2013-04-30 11:51:00,81.3,55.4,29.79,SE,135,9.9,17.5,41,0.00,,,0.00,WUHU216EASYWX,2013-04-30 16:51:00,
2013-04-30 11:52:00,81.3,55.4,29.79,SE,135,9.9,17.5,41,0.00,,,0.00,WUHU216EASYWX,2013-04-30 16:52:00,
2013-04-30 11:53:00,81.3,55.4,29.79,SE,135,9.9,17.5,41,0.00,,,0.00,WUHU216EASYWX,2013-04-30 16:53:00,
2013-04-30 11:55:00,81.5,55.6,29.79,WNW,293,3.8,17.5,41,0.00,,,0.00,WUHU216EASYWX,2013-04-30 16:55:00,
2013-04-30 11:56:00,81.5,55.6,29.79,WNW,293,3.8,17.5,41,0.00,,,0.00,WUHU216EASYWX,2013-04-30 16:56:00,
2013-04-30 11:57:00,81.5,55.6,29.79,WNW,293,3.8,17.5,41,0.00,,,0.00,WUHU216EASYWX,2013-04-30 16:57:00,
2013-04-30 11:59:00,81.0,55.8,29.79,SE,135,10.8,17.5,42,0.00,,,0.00,WUHU216EASYWX,2013-04-30 16:59:00,
2013-04-30 12:00:00,81.0,55.8,29.79,SE,135,10.8,17.5,42,0.00,,,0.00,WUHU216EASYWX,2013-04-30 17:00:00,
2013-04-30 12:01:00,81.0,55.8,29.79,SE,135,10.8,17.5,42,0.00,,,0.00,WUHU216EASYWX,2013-04-30 17:01:00,
2013-04-30 12:02:00,81.0,55.8,29.79,SE,135,10.8,17.5,42,0.00,,,0.00,WUHU216EASYWX,2013-04-30 17:02:00,
2013-04-30 12:03:00,81.0,55.8,29.79,SE,135,10.8,17.5,42,0.00,,,0.00,WUHU216EASYWX,2013-04-30 17:03:00,
2013-04-30 12:04:00,81.0,55.8,29.79,South,180,6.9,17.5,42,0.00,,,0.00,WUHU216EASYWX,2013-04-30 17:04:00,
2013-04-30 12:05:00,81.0,55.8,29.79,South,180,6.9,17.5,42,0.00,,,0.00,WUHU216EASYWX,2013-04-30 17:05:00,
2013-04-30 12:06:00,81.0,55.8,29.79,South,180,6.9,17.5,42,0.00,,,0.00,WUHU216EASYWX,2013-04-30 17:06:00,
2013-04-30 12:07:00,81.0,55.8,29.79,South,180,6.9,17.5,42,0.00,,,0.00,WUHU216EASYWX,2013-04-30 17:07:00,
2013-04-30 12:08:00,81.0,55.8,29.79,South,180,6.9,17.5,42,0.00,,,0.00,WUHU216EASYWX,2013-04-30 17:08:00,
2013-04-30 12:09:00,81.9,55.9,29.78,WNW,293,7.6,13.0,41,0.00,,,0.00,WUHU216EASYWX,2013-04-30 17:09:00,
2013-04-30 12:10:00,81.9,55.9,29.78,WNW,293,7.6,13.0,41,0.00,,,0.00,WUHU216EASYWX,2013-04-30 17:10:00,
2013-04-30 12:11:00,81.9,55.9,29.78,WNW,293,7.6,13.0,41,0.00,,,0.00,WUHU216EASYWX,2013-04-30 17:11:00,
2013-04-30 12:12:00,81.9,55.9,29.78,WNW,293,7.6,13.0,41,0.00,,,0.00,WUHU216EASYWX,2013-04-30 17:12:00,
2013-04-30 12:13:00,81.9,55.9,29.78,WNW,293,7.6,13.0,41,0.00,,,0.00,WUHU216EASYWX,2013-04-30 17:13:00,
2013-04-30 12:15:00,82.2,55.6,29.79,NW,315,8.3,15.2,40,0.00,,,0.00,WUHU216EASYWX,2013-04-30 17:15:00,
2013-04-30 12:16:00,82.2,55.6,29.79,NW,315,8.3,15.2,40,0.00,,,0.00,WUHU216EASYWX,2013-04-30 17:16:00,
2013-04-30 12:18:00,82.2,55.6,29.79,NW,315,8.3,15.2,40,0.00,,,0.00,WUHU216EASYWX,2013-04-30 17:18:00,
2013-04-30 12:20:00,82.0,55.4,29.79,SE,135,6.0,15.2,40,0.00,,,0.00,WUHU216EASYWX,2013-04-30 17:20:00,
2013-04-30 12:21:00,82.0,55.4,29.79,SE,135,6.0,15.2,40,0.00,,,0.00,WUHU216EASYWX,2013-04-30 17:21:00,
2013-04-30 12:23:00,82.0,55.4,29.79,SE,135,6.0,15.2,40,0.00,,,0.00,WUHU216EASYWX,2013-04-30 17:23:00,
2013-04-30 12:24:00,82.0,55.4,29.78,SE,135,6.9,15.2,40,0.00,,,0.00,WUHU216EASYWX,2013-04-30 17:24:00,
2013-04-30 12:25:00,82.0,55.4,29.78,SE,135,6.9,11.4,40,0.00,,,0.00,WUHU216EASYWX,2013-04-30 17:25:00,
2013-04-30 12:26:00,82.0,55.4,29.78,SE,135,6.9,11.4,40,0.00,,,0.00,WUHU216EASYWX,2013-04-30 17:26:00,
2013-04-30 12:27:00,82.0,55.4,29.78,SE,135,6.9,11.4,40,0.00,,,0.00,WUHU216EASYWX,2013-04-30 17:27:00,
2013-04-30 12:28:00,82.0,55.4,29.78,SE,135,6.9,11.4,40,0.00,,,0.00,WUHU216EASYWX,2013-04-30 17:28:00,
2013-04-30 12:29:00,82.4,53.6,29.78,South,180,10.8,15.9,37,0.00,,,0.00,WUHU216EASYWX,2013-04-30 17:29:00,
2013-04-30 12:30:00,82.4,53.6,29.78,South,180,10.8,15.9,37,0.00,,,0.00,WUHU216EASYWX,2013-04-30 17:30:00,
2013-04-30 12:31:00,82.4,53.6,29.78,South,180,10.8,15.9,37,0.00,,,0.00,WUHU216EASYWX,2013-04-30 17:31:00,
2013-04-30 12:32:00,82.4,53.6,29.78,South,180,10.8,15.9,37,0.00,,,0.00,WUHU216EASYWX,2013-04-30 17:32:00,
2013-04-30 12:33:00,82.4,53.6,29.78,South,180,10.8,15.9,37,0.00,,,0.00,WUHU216EASYWX,2013-04-30 17:33:00,
2013-04-30 12:34:00,82.6,53.8,29.78,South,180,7.6,15.9,37,0.00,,,0.00,WUHU216EASYWX,2013-04-30 17:34:00,
2013-04-30 12:36:00,82.6,53.8,29.78,South,180,7.6,15.9,37,0.00,,,0.00,WUHU216EASYWX,2013-04-30 17:36:00,
2013-04-30 12:37:00,82.6,53.8,29.78,South,180,7.6,15.9,37,0.00,,,0.00,WUHU216EASYWX,2013-04-30 17:37:00,
2013-04-30 12:38:00,82.6,53.8,29.78,South,180,7.6,15.9,37,0.00,,,0.00,WUHU216EASYWX,2013-04-30 17:38:00,
2013-04-30 12:40:00,82.2,52.7,29.78,SE,135,8.3,13.0,36,0.00,,,0.00,WUHU216EASYWX,2013-04-30 17:40:00,
2013-04-30 12:41:00,82.2,52.7,29.78,SE,135,8.3,13.0,36,0.00,,,0.00,WUHU216EASYWX,2013-04-30 17:41:00,
2013-04-30 12:43:00,82.2,52.7,29.78,SE,135,8.3,13.0,36,0.00,,,0.00,WUHU216EASYWX,2013-04-30 17:43:00,
2013-04-30 12:45:00,82.6,52.2,29.78,SW,225,7.6,17.5,35,0.00,,,0.00,WUHU216EASYWX,2013-04-30 17:45:00,
2013-04-30 12:46:00,82.6,52.2,29.78,SW,225,7.6,17.5,35,0.00,,,0.00,WUHU216EASYWX,2013-04-30 17:46:00,
2013-04-30 12:48:00,82.6,52.2,29.78,SW,225,7.6,17.5,35,0.00,,,0.00,WUHU216EASYWX,2013-04-30 17:48:00,
2013-04-30 12:49:00,82.6,52.2,29.78,SW,225,7.6,17.5,35,0.00,,,0.00,WUHU216EASYWX,2013-04-30 17:49:00,
2013-04-30 12:50:00,82.8,52.3,29.78,SW,225,10.8,17.5,35,0.00,,,0.00,WUHU216EASYWX,2013-04-30 17:50:00,
2013-04-30 12:51:00,82.8,52.3,29.78,SW,225,10.8,17.5,35,0.00,,,0.00,WUHU216EASYWX,2013-04-30 17:51:00,
2013-04-30 12:52:00,82.8,52.3,29.78,SW,225,10.8,17.5,35,0.00,,,0.00,WUHU216EASYWX,2013-04-30 17:52:00,
2013-04-30 12:53:00,82.8,52.3,29.78,SW,225,10.8,17.5,35,0.00,,,0.00,WUHU216EASYWX,2013-04-30 17:53:00,
2013-04-30 12:54:00,83.1,52.7,29.77,South,180,6.9,16.8,35,0.00,,,0.00,WUHU216EASYWX,2013-04-30 17:54:00,
2013-04-30 12:56:00,83.1,52.7,29.77,South,180,6.9,16.8,35,0.00,,,0.00,WUHU216EASYWX,2013-04-30 17:56:00,
2013-04-30 12:57:00,83.1,52.7,29.77,South,180,6.9,16.8,35,0.00,,,0.00,WUHU216EASYWX,2013-04-30 17:57:00,
2013-04-30 12:58:00,83.1,52.7,29.77,South,180,6.9,16.8,35,0.00,,,0.00,WUHU216EASYWX,2013-04-30 17:58:00,
2013-04-30 12:59:00,82.9,51.8,29.77,South,180,9.9,19.7,34,0.00,,,0.00,WUHU216EASYWX,2013-04-30 17:59:00,
2013-04-30 13:01:00,82.9,51.8,29.77,South,180,9.9,19.7,34,0.00,,,0.00,WUHU216EASYWX,2013-04-30 18:01:00,
2013-04-30 13:02:00,82.9,51.8,29.77,South,180,9.9,19.7,34,0.00,,,0.00,WUHU216EASYWX,2013-04-30 18:02:00,
2013-04-30 13:04:00,82.9,52.5,29.77,SE,135,6.9,19.7,35,0.00,,,0.00,WUHU216EASYWX,2013-04-30 18:04:00,
2013-04-30 13:06:00,82.9,52.5,29.77,SE,135,6.9,19.7,35,0.00,,,0.00,WUHU216EASYWX,2013-04-30 18:06:00,
2013-04-30 13:07:00,82.9,52.5,29.77,SE,135,6.9,19.7,35,0.00,,,0.00,WUHU216EASYWX,2013-04-30 18:07:00,
2013-04-30 13:08:00,82.9,52.5,29.77,SE,135,6.9,19.7,35,0.00,,,0.00,WUHU216EASYWX,2013-04-30 18:08:00,
2013-04-30 13:09:00,83.3,52.2,29.77,SE,135,6.0,15.9,34,0.00,,,0.00,WUHU216EASYWX,2013-04-30 18:09:00,
2013-04-30 13:11:00,83.3,52.2,29.77,SE,135,6.0,15.9,34,0.00,,,0.00,WUHU216EASYWX,2013-04-30 18:11:00,
2013-04-30 13:12:00,83.3,52.2,29.77,SE,135,6.0,15.9,34,0.00,,,0.00,WUHU216EASYWX,2013-04-30 18:12:00,
2013-04-30 13:13:00,83.3,52.2,29.77,SE,135,6.0,15.9,34,0.00,,,0.00,WUHU216EASYWX,2013-04-30 18:13:00,
2013-04-30 13:14:00,82.9,53.2,29.77,SE,135,6.9,15.9,36,0.00,,,0.00,WUHU216EASYWX,2013-04-30 18:14:00,
2013-04-30 13:16:00,82.9,53.2,29.77,SE,135,6.9,15.9,36,0.00,,,0.00,WUHU216EASYWX,2013-04-30 18:16:00,
2013-04-30 13:17:00,82.9,53.2,29.77,SE,135,6.9,15.9,36,0.00,,,0.00,WUHU216EASYWX,2013-04-30 18:17:00,
2013-04-30 13:18:00,82.9,53.2,29.77,SE,135,6.9,15.9,36,0.00,,,0.00,WUHU216EASYWX,2013-04-30 18:18:00,
2013-04-30 13:19:00,83.7,53.2,29.77,SE,135,6.0,13.0,35,0.00,,,0.00,WUHU216EASYWX,2013-04-30 18:19:00,
2013-04-30 13:21:00,83.7,53.2,29.77,SE,135,6.0,13.0,35,0.00,,,0.00,WUHU216EASYWX,2013-04-30 18:21:00,
2013-04-30 13:22:00,83.7,53.2,29.77,SE,135,6.0,13.0,35,0.00,,,0.00,WUHU216EASYWX,2013-04-30 18:22:00,
2013-04-30 13:23:00,83.7,53.2,29.77,SE,135,6.0,13.0,35,0.00,,,0.00,WUHU216EASYWX,2013-04-30 18:23:00,
2013-04-30 13:24:00,83.3,52.2,29.76,SE,135,8.3,12.1,34,0.00,,,0.00,WUHU216EASYWX,2013-04-30 18:24:00,
2013-04-30 13:26:00,83.3,52.2,29.76,SE,135,8.3,12.1,34,0.00,,,0.00,WUHU216EASYWX,2013-04-30 18:26:00,
2013-04-30 13:27:00,83.3,52.2,29.76,SE,135,8.3,12.1,34,0.00,,,0.00,WUHU216EASYWX,2013-04-30 18:27:00,
2013-04-30 13:28:00,83.3,52.2,29.76,SE,135,8.3,12.1,34,0.00,,,0.00,WUHU216EASYWX,2013-04-30 18:28:00,
2013-04-30 13:29:00,83.5,51.4,29.76,SE,135,13.0,22.2,33,0.00,,,0.00,WUHU216EASYWX,2013-04-30 18:29:00,
2013-04-30 13:31:00,83.5,51.4,29.76,SE,135,13.0,22.2,33,0.00,,,0.00,WUHU216EASYWX,2013-04-30 18:31:00,
2013-04-30 13:32:00,83.5,51.4,29.76,SE,135,13.0,22.2,33,0.00,,,0.00,WUHU216EASYWX,2013-04-30 18:32:00,
2013-04-30 13:33:00,83.5,51.4,29.76,SE,135,13.0,22.2,33,0.00,,,0.00,WUHU216EASYWX,2013-04-30 18:33:00,
2013-04-30 13:34:00,84.4,52.2,29.77,SW,225,6.9,22.2,33,0.00,,,0.00,WUHU216EASYWX,2013-04-30 18:34:00,
2013-04-30 13:35:00,84.4,52.2,29.77,SW,225,6.9,22.2,33,0.00,,,0.00,WUHU216EASYWX,2013-04-30 18:35:00,
2013-04-30 13:36:00,84.4,52.2,29.77,SW,225,6.9,22.2,33,0.00,,,0.00,WUHU216EASYWX,2013-04-30 18:36:00,
2013-04-30 13:37:00,84.4,52.2,29.77,SW,225,6.9,22.2,33,0.00,,,0.00,WUHU216EASYWX,2013-04-30 18:37:00,
2013-04-30 13:38:00,84.4,52.2,29.77,SW,225,6.9,22.2,33,0.00,,,0.00,WUHU216EASYWX,2013-04-30 18:38:00,
2013-04-30 13:39:00,84.6,51.4,29.77,SW,225,8.3,15.2,32,0.00,,,0.00,WUHU216EASYWX,2013-04-30 18:39:00,
2013-04-30 13:40:00,84.6,51.4,29.77,SW,225,8.3,15.2,32,0.00,,,0.00,WUHU216EASYWX,2013-04-30 18:40:00,
2013-04-30 13:42:00,84.6,51.4,29.77,SW,225,8.3,15.2,32,0.00,,,0.00,WUHU216EASYWX,2013-04-30 18:42:00,
2013-04-30 13:43:00,84.6,51.4,29.77,SW,225,8.3,15.2,32,0.00,,,0.00,WUHU216EASYWX,2013-04-30 18:43:00,
2013-04-30 13:45:00,83.8,50.0,29.77,East,90,10.8,17.5,31,0.00,,,0.00,WUHU216EASYWX,2013-04-30 18:45:00,
2013-04-30 13:47:00,83.8,50.0,29.77,East,90,10.8,17.5,31,0.00,,,0.00,WUHU216EASYWX,2013-04-30 18:47:00,
2013-04-30 13:48:00,83.8,50.0,29.77,East,90,10.8,17.5,31,0.00,,,0.00,WUHU216EASYWX,2013-04-30 18:48:00,
2013-04-30 13:49:00,84.2,50.4,29.77,South,180,11.4,20.6,31,0.00,,,0.00,WUHU216EASYWX,2013-04-30 18:49:00,
2013-04-30 13:50:00,84.2,50.4,29.77,South,180,11.4,20.6,31,0.00,,,0.00,WUHU216EASYWX,2013-04-30 18:50:00,
2013-04-30 13:51:00,84.2,50.4,29.77,South,180,11.4,20.6,31,0.00,,,0.00,WUHU216EASYWX,2013-04-30 18:51:00,
2013-04-30 13:52:00,84.2,50.4,29.77,South,180,11.4,20.6,31,0.00,,,0.00,WUHU216EASYWX,2013-04-30 18:52:00,
2013-04-30 13:53:00,84.2,50.4,29.77,South,180,11.4,20.6,31,0.00,,,0.00,WUHU216EASYWX,2013-04-30 18:53:00,
2013-04-30 13:54:00,84.2,52.0,29.77,SE,135,8.3,20.6,33,0.00,,,0.00,WUHU216EASYWX,2013-04-30 18:54:00,
2013-04-30 13:55:00,84.2,52.0,29.77,SE,135,8.3,20.6,33,0.00,,,0.00,WUHU216EASYWX,2013-04-30 18:55:00,
2013-04-30 13:56:00,84.2,52.0,29.77,SE,135,8.3,20.6,33,0.00,,,0.00,WUHU216EASYWX,2013-04-30 18:56:00,
2013-04-30 13:57:00,84.2,52.0,29.77,SE,135,8.3,20.6,33,0.00,,,0.00,WUHU216EASYWX,2013-04-30 18:57:00,
2013-04-30 13:58:00,84.2,52.0,29.77,SE,135,8.3,20.6,33,0.00,,,0.00,WUHU216EASYWX,2013-04-30 18:58:00,
2013-04-30 13:59:00,84.0,52.0,29.76,East,90,9.9,17.5,33,0.00,,,0.00,WUHU216EASYWX,2013-04-30 18:59:00,
2013-04-30 14:01:00,84.0,52.0,29.76,East,90,9.9,17.5,33,0.00,,,0.00,WUHU216EASYWX,2013-04-30 19:01:00,
2013-04-30 14:02:00,84.0,52.0,29.76,East,90,9.9,17.5,33,0.00,,,0.00,WUHU216EASYWX,2013-04-30 19:02:00,
2013-04-30 14:03:00,84.0,52.0,29.76,East,90,9.9,17.5,33,0.00,,,0.00,WUHU216EASYWX,2013-04-30 19:03:00,
2013-04-30 14:04:00,84.2,52.0,29.76,SW,225,8.3,17.5,33,0.00,,,0.00,WUHU216EASYWX,2013-04-30 19:04:00,
2013-04-30 14:06:00,84.2,52.0,29.76,SW,225,8.3,17.5,33,0.00,,,0.00,WUHU216EASYWX,2013-04-30 19:06:00,
2013-04-30 14:07:00,84.2,52.0,29.76,SW,225,8.3,17.5,33,0.00,,,0.00,WUHU216EASYWX,2013-04-30 19:07:00,
2013-04-30 14:08:00,84.2,52.0,29.76,SW,225,8.3,17.5,33,0.00,,,0.00,WUHU216EASYWX,2013-04-30 19:08:00,
2013-04-30 14:09:00,84.9,52.7,29.76,SW,225,6.0,16.8,33,0.00,,,0.00,WUHU216EASYWX,2013-04-30 19:09:00,
2013-04-30 14:11:00,84.9,52.7,29.76,SW,225,6.0,16.8,33,0.00,,,0.00,WUHU216EASYWX,2013-04-30 19:11:00,
2013-04-30 14:13:00,84.9,52.7,29.76,SW,225,6.0,16.8,33,0.00,,,0.00,WUHU216EASYWX,2013-04-30 19:13:00,
2013-04-30 14:14:00,85.5,53.1,29.76,SE,135,7.6,28.2,33,0.00,,,0.00,WUHU216EASYWX,2013-04-30 19:14:00,
2013-04-30 14:16:00,85.5,53.1,29.76,SE,135,7.6,28.2,33,0.00,,,0.00,WUHU216EASYWX,2013-04-30 19:16:00,
2013-04-30 14:18:00,85.5,53.1,29.76,SE,135,7.6,28.2,33,0.00,,,0.00,WUHU216EASYWX,2013-04-30 19:18:00,
2013-04-30 14:19:00,84.7,53.4,29.76,SW,225,6.0,28.2,34,0.00,,,0.00,WUHU216EASYWX,2013-04-30 19:19:00,
2013-04-30 14:21:00,84.7,53.4,29.76,SW,225,6.0,28.2,34,0.00,,,0.00,WUHU216EASYWX,2013-04-30 19:21:00,
2013-04-30 14:22:00,84.7,53.4,29.76,SW,225,6.0,28.2,34,0.00,,,0.00,WUHU216EASYWX,2013-04-30 19:22:00,
2013-04-30 14:23:00,84.7,53.4,29.76,SW,225,6.0,28.2,34,0.00,,,0.00,WUHU216EASYWX,2013-04-30 19:23:00,
2013-04-30 14:25:00,84.9,52.7,29.76,East,90,8.3,16.8,33,0.00,,,0.00,WUHU216EASYWX,2013-04-30 19:25:00,
2013-04-30 14:26:00,84.9,52.7,29.76,East,90,8.3,16.8,33,0.00,,,0.00,WUHU216EASYWX,2013-04-30 19:26:00,
2013-04-30 14:27:00,84.9,52.7,29.76,East,90,8.3,16.8,33,0.00,,,0.00,WUHU216EASYWX,2013-04-30 19:27:00,
2013-04-30 14:28:00,84.9,52.7,29.76,East,90,8.3,16.8,33,0.00,,,0.00,WUHU216EASYWX,2013-04-30 19:28:00,
2013-04-30 14:31:00,84.6,53.2,29.77,South,180,11.4,20.6,34,0.00,,,0.00,WUHU216EASYWX,2013-04-30 19:31:00,
2013-04-30 14:32:00,84.6,53.2,29.77,South,180,11.4,20.6,34,0.00,,,0.00,WUHU216EASYWX,2013-04-30 19:32:00,
2013-04-30 14:33:00,84.6,53.2,29.77,South,180,11.4,20.6,34,0.00,,,0.00,WUHU216EASYWX,2013-04-30 19:33:00,
2013-04-30 14:36:00,85.3,52.2,29.77,South,180,6.9,20.6,32,0.00,,,0.00,WUHU216EASYWX,2013-04-30 19:36:00,
2013-04-30 14:38:00,85.3,52.2,29.77,South,180,6.9,20.6,32,0.00,,,0.00,WUHU216EASYWX,2013-04-30 19:38:00,
2013-04-30 14:41:00,85.1,51.1,29.76,South,180,6.0,10.8,31,0.00,,,0.00,WUHU216EASYWX,2013-04-30 19:41:00,
2013-04-30 14:43:00,85.1,51.1,29.76,South,180,6.0,10.8,31,0.00,,,0.00,WUHU216EASYWX,2013-04-30 19:43:00,
2013-04-30 14:44:00,85.1,51.1,29.76,South,180,6.0,10.8,31,0.00,,,0.00,WUHU216EASYWX,2013-04-30 19:44:00,
2013-04-30 14:46:00,86.0,51.1,29.76,East,90,6.9,9.9,30,0.00,,,0.00,WUHU216EASYWX,2013-04-30 19:46:00,
2013-04-30 14:48:00,86.0,51.1,29.76,East,90,6.9,9.9,30,0.00,,,0.00,WUHU216EASYWX,2013-04-30 19:48:00,
2013-04-30 14:49:00,85.5,49.6,29.76,South,180,13.7,22.8,29,0.00,,,0.00,WUHU216EASYWX,2013-04-30 19:49:00,
2013-04-30 14:51:00,85.5,49.6,29.76,South,180,13.7,22.8,29,0.00,,,0.00,WUHU216EASYWX,2013-04-30 19:51:00,
2013-04-30 14:52:00,85.5,49.6,29.76,South,180,13.7,22.8,29,0.00,,,0.00,WUHU216EASYWX,2013-04-30 19:52:00,
2013-04-30 14:54:00,85.5,49.6,29.76,South,180,13.7,22.8,29,0.00,,,0.00,WUHU216EASYWX,2013-04-30 19:54:00,
2013-04-30 14:56:00,85.3,49.5,29.76,East,90,10.8,22.8,29,0.00,,,0.00,WUHU216EASYWX,2013-04-30 19:56:00,
2013-04-30 14:57:00,85.3,49.5,29.76,East,90,10.8,22.8,29,0.00,,,0.00,WUHU216EASYWX,2013-04-30 19:57:00,
2013-04-30 14:59:00,85.5,49.6,29.76,SE,135,5.4,17.5,29,0.00,,,0.00,WUHU216EASYWX,2013-04-30 19:59:00,
2013-04-30 15:00:00,85.5,49.6,29.76,SE,135,5.4,17.5,29,0.00,,,0.00,WUHU216EASYWX,2013-04-30 20:00:00,
2013-04-30 15:01:00,85.5,49.6,29.76,SE,135,5.4,17.5,29,0.00,,,0.00,WUHU216EASYWX,2013-04-30 20:01:00,
2013-04-30 15:03:00,85.5,49.6,29.76,SE,135,5.4,17.5,29,0.00,,,0.00,WUHU216EASYWX,2013-04-30 20:03:00,
2013-04-30 15:04:00,85.6,48.9,29.76,SE,135,7.6,15.9,28,0.00,,,0.00,WUHU216EASYWX,2013-04-30 20:04:00,
2013-04-30 15:05:00,85.6,48.9,29.76,SE,135,7.6,15.9,28,0.00,,,0.00,WUHU216EASYWX,2013-04-30 20:05:00,
2013-04-30 15:07:00,85.6,48.9,29.76,SE,135,7.6,15.9,28,0.00,,,0.00,WUHU216EASYWX,2013-04-30 20:07:00,
2013-04-30 15:08:00,85.6,48.9,29.76,SE,135,7.6,15.9,28,0.00,,,0.00,WUHU216EASYWX,2013-04-30 20:08:00,
2013-04-30 15:09:00,86.0,50.2,29.76,SW,225,3.8,15.9,29,0.00,,,0.00,WUHU216EASYWX,2013-04-30 20:09:00,
2013-04-30 15:10:00,86.0,50.2,29.76,SW,225,3.8,15.9,29,0.00,,,0.00,WUHU216EASYWX,2013-04-30 20:10:00,
2013-04-30 15:12:00,86.0,50.2,29.76,SW,225,3.8,15.9,29,0.00,,,0.00,WUHU216EASYWX,2013-04-30 20:12:00,
2013-04-30 15:13:00,86.0,50.2,29.76,SW,225,3.8,15.9,29,0.00,,,0.00,WUHU216EASYWX,2013-04-30 20:13:00,
2013-04-30 15:14:00,86.2,50.4,29.76,SE,135,7.6,13.0,29,0.00,,,0.00,WUHU216EASYWX,2013-04-30 20:14:00,
2013-04-30 15:15:00,86.2,50.4,29.76,SE,135,7.6,13.0,29,0.00,,,0.00,WUHU216EASYWX,2013-04-30 20:15:00,
2013-04-30 15:17:00,86.2,50.4,29.76,SE,135,7.6,13.0,29,0.00,,,0.00,WUHU216EASYWX,2013-04-30 20:17:00,
2013-04-30 15:18:00,86.2,50.4,29.76,SE,135,7.6,13.0,29,0.00,,,0.00,WUHU216EASYWX,2013-04-30 20:18:00,
2013-04-30 15:19:00,86.9,50.0,29.76,East,90,6.0,13.0,28,0.00,,,0.00,WUHU216EASYWX,2013-04-30 20:19:00,
2013-04-30 15:20:00,86.9,50.0,29.76,East,90,6.0,13.0,28,0.00,,,0.00,WUHU216EASYWX,2013-04-30 20:20:00,
2013-04-30 15:22:00,86.9,50.0,29.76,East,90,6.0,13.0,28,0.00,,,0.00,WUHU216EASYWX,2013-04-30 20:22:00,
2013-04-30 15:23:00,86.9,50.0,29.76,East,90,6.0,13.0,28,0.00,,,0.00,WUHU216EASYWX,2013-04-30 20:23:00,
2013-04-30 15:24:00,86.0,49.1,29.76,SW,225,11.4,17.5,28,0.00,,,0.00,WUHU216EASYWX,2013-04-30 20:24:00,
2013-04-30 15:25:00,86.0,49.1,29.76,SW,225,11.4,17.5,28,0.00,,,0.00,WUHU216EASYWX,2013-04-30 20:25:00,
2013-04-30 15:28:00,86.0,49.1,29.76,SW,225,11.4,17.5,28,0.00,,,0.00,WUHU216EASYWX,2013-04-30 20:28:00,
2013-04-30 15:30:00,85.8,50.0,29.75,SE,135,10.8,17.5,29,0.00,,,0.00,WUHU216EASYWX,2013-04-30 20:30:00,
2013-04-30 15:31:00,85.8,50.0,29.75,SE,135,10.8,17.5,29,0.00,,,0.00,WUHU216EASYWX,2013-04-30 20:31:00,
2013-04-30 15:33:00,85.8,50.0,29.75,SE,135,10.8,17.5,29,0.00,,,0.00,WUHU216EASYWX,2013-04-30 20:33:00,
2013-04-30 15:35:00,86.2,48.4,29.75,East,90,9.2,19.0,27,0.00,,,0.00,WUHU216EASYWX,2013-04-30 20:35:00,
2013-04-30 15:36:00,86.2,48.4,29.75,East,90,9.2,19.0,27,0.00,,,0.00,WUHU216EASYWX,2013-04-30 20:36:00,
2013-04-30 15:38:00,86.2,48.4,29.75,East,90,9.2,19.0,27,0.00,,,0.00,WUHU216EASYWX,2013-04-30 20:38:00,
2013-04-30 15:39:00,85.6,46.9,29.75,North,0,7.6,19.0,26,0.00,,,0.00,WUHU216EASYWX,2013-04-30 20:39:00,
2013-04-30 15:40:00,85.6,46.9,29.75,North,0,7.6,19.0,26,0.00,,,0.00,WUHU216EASYWX,2013-04-30 20:40:00,
2013-04-30 15:41:00,85.6,46.9,29.75,North,0,7.6,19.0,26,0.00,,,0.00,WUHU216EASYWX,2013-04-30 20:41:00,
2013-04-30 15:44:00,85.6,46.9,29.75,North,0,7.6,19.0,26,0.00,,,0.00,WUHU216EASYWX,2013-04-30 20:44:00,
2013-04-30 15:46:00,86.2,48.4,29.75,SW,225,6.9,14.6,27,0.00,,,0.00,WUHU216EASYWX,2013-04-30 20:46:00,
2013-04-30 15:49:00,86.2,48.4,29.75,SW,225,6.9,13.0,27,0.00,,,0.00,WUHU216EASYWX,2013-04-30 20:49:00,
2013-04-30 15:50:00,86.7,47.8,29.75,SE,135,5.4,13.0,26,0.00,,,0.00,WUHU216EASYWX,2013-04-30 20:50:00,
2013-04-30 15:51:00,86.7,47.8,29.75,SE,135,5.4,13.0,26,0.00,,,0.00,WUHU216EASYWX,2013-04-30 20:51:00,
2013-04-30 15:54:00,86.5,46.6,29.75,NE,45,6.0,14.6,25,0.00,,,0.00,WUHU216EASYWX,2013-04-30 20:54:00,
2013-04-30 15:55:00,86.5,46.6,29.75,NE,45,6.0,14.6,25,0.00,,,0.00,WUHU216EASYWX,2013-04-30 20:55:00,
2013-04-30 15:56:00,86.5,46.6,29.75,NE,45,6.0,14.6,25,0.00,,,0.00,WUHU216EASYWX,2013-04-30 20:56:00,
2013-04-30 15:59:00,86.4,46.4,29.75,South,180,7.6,14.6,25,0.00,,,0.00,WUHU216EASYWX,2013-04-30 20:59:00,
2013-04-30 16:01:00,86.4,46.4,29.75,South,180,7.6,14.6,25,0.00,,,0.00,WUHU216EASYWX,2013-04-30 21:01:00,
2013-04-30 16:02:00,86.4,46.4,29.75,South,180,7.6,14.6,25,0.00,,,0.00,WUHU216EASYWX,2013-04-30 21:02:00,
2013-04-30 16:04:00,86.2,47.3,29.75,SE,135,7.6,13.7,26,0.00,,,0.00,WUHU216EASYWX,2013-04-30 21:04:00,
2013-04-30 16:06:00,86.2,47.3,29.75,SE,135,7.6,13.7,26,0.00,,,0.00,WUHU216EASYWX,2013-04-30 21:06:00,
2013-04-30 16:07:00,86.2,47.3,29.75,SE,135,7.6,13.7,26,0.00,,,0.00,WUHU216EASYWX,2013-04-30 21:07:00,
2013-04-30 16:09:00,85.8,49.1,29.75,SE,135,7.6,13.0,28,0.00,,,0.00,WUHU216EASYWX,2013-04-30 21:09:00,
2013-04-30 16:11:00,85.8,49.1,29.75,SE,135,7.6,13.0,28,0.00,,,0.00,WUHU216EASYWX,2013-04-30 21:11:00,
2013-04-30 16:12:00,85.8,49.1,29.75,SE,135,7.6,13.0,28,0.00,,,0.00,WUHU216EASYWX,2013-04-30 21:12:00,
2013-04-30 16:13:00,85.8,49.1,29.75,SE,135,7.6,13.0,28,0.00,,,0.00,WUHU216EASYWX,2013-04-30 21:13:00,
2013-04-30 16:14:00,86.0,47.1,29.74,SW,225,7.6,15.2,26,0.00,,,0.00,WUHU216EASYWX,2013-04-30 21:14:00,
2013-04-30 16:16:00,86.0,47.1,29.74,SW,225,7.6,15.2,26,0.00,,,0.00,WUHU216EASYWX,2013-04-30 21:16:00,
2013-04-30 16:17:00,86.0,47.1,29.74,SW,225,7.6,15.2,26,0.00,,,0.00,WUHU216EASYWX,2013-04-30 21:17:00,
2013-04-30 16:18:00,86.0,47.1,29.74,SW,225,7.6,15.2,26,0.00,,,0.00,WUHU216EASYWX,2013-04-30 21:18:00,
2013-04-30 16:19:00,86.2,48.4,29.75,East,90,2.2,15.2,27,0.00,,,0.00,WUHU216EASYWX,2013-04-30 21:19:00,
2013-04-30 16:21:00,86.2,48.4,29.75,East,90,2.2,15.2,27,0.00,,,0.00,WUHU216EASYWX,2013-04-30 21:21:00,
2013-04-30 16:22:00,86.2,48.4,29.75,East,90,2.2,15.2,27,0.00,,,0.00,WUHU216EASYWX,2013-04-30 21:22:00,
2013-04-30 16:23:00,86.2,48.4,29.75,East,90,2.2,15.2,27,0.00,,,0.00,WUHU216EASYWX,2013-04-30 21:23:00,
2013-04-30 16:24:00,86.5,46.6,29.74,SE,135,6.9,10.8,25,0.00,,,0.00,WUHU216EASYWX,2013-04-30 21:24:00,
2013-04-30 16:26:00,86.5,46.6,29.74,SE,135,6.9,10.8,25,0.00,,,0.00,WUHU216EASYWX,2013-04-30 21:26:00,
2013-04-30 16:27:00,86.5,46.6,29.74,SE,135,6.9,10.8,25,0.00,,,0.00,WUHU216EASYWX,2013-04-30 21:27:00,
2013-04-30 16:28:00,86.5,46.6,29.74,SE,135,6.9,10.8,25,0.00,,,0.00,WUHU216EASYWX,2013-04-30 21:28:00,
2013-04-30 16:30:00,86.0,48.2,29.74,SE,135,8.3,19.7,27,0.00,,,0.00,WUHU216EASYWX,2013-04-30 21:30:00,
2013-04-30 16:32:00,86.0,48.2,29.74,SE,135,8.3,19.7,27,0.00,,,0.00,WUHU216EASYWX,2013-04-30 21:32:00,
2013-04-30 16:33:00,86.0,48.2,29.74,SE,135,8.3,19.7,27,0.00,,,0.00,WUHU216EASYWX,2013-04-30 21:33:00,
2013-04-30 16:35:00,85.6,47.8,29.74,East,90,7.6,19.7,27,0.00,,,0.00,WUHU216EASYWX,2013-04-30 21:35:00,
2013-04-30 16:37:00,85.6,47.8,29.74,East,90,7.6,19.7,27,0.00,,,0.00,WUHU216EASYWX,2013-04-30 21:37:00,
2013-04-30 16:38:00,85.6,47.8,29.74,East,90,7.6,19.7,27,0.00,,,0.00,WUHU216EASYWX,2013-04-30 21:38:00,
2013-04-30 16:40:00,85.5,47.7,29.74,South,180,6.9,15.2,27,0.00,,,0.00,WUHU216EASYWX,2013-04-30 21:40:00,
2013-04-30 16:42:00,85.5,47.7,29.74,South,180,6.9,15.2,27,0.00,,,0.00,WUHU216EASYWX,2013-04-30 21:42:00,
2013-04-30 16:43:00,85.5,47.7,29.74,South,180,6.9,15.2,27,0.00,,,0.00,WUHU216EASYWX,2013-04-30 21:43:00,
2013-04-30 16:44:00,85.1,47.5,29.74,South,180,8.3,13.0,27,0.00,,,0.00,WUHU216EASYWX,2013-04-30 21:44:00,
2013-04-30 16:45:00,85.1,47.5,29.74,South,180,8.3,13.0,27,0.00,,,0.00,WUHU216EASYWX,2013-04-30 21:45:00,
2013-04-30 16:47:00,85.1,47.5,29.74,South,180,8.3,13.0,27,0.00,,,0.00,WUHU216EASYWX,2013-04-30 21:47:00,
2013-04-30 16:48:00,85.1,47.5,29.74,South,180,8.3,13.0,27,0.00,,,0.00,WUHU216EASYWX,2013-04-30 21:48:00,
2013-04-30 16:49:00,86.0,48.2,29.74,South,180,5.4,14.6,27,0.00,,,0.00,WUHU216EASYWX,2013-04-30 21:49:00,
2013-04-30 16:50:00,86.0,48.2,29.74,South,180,5.4,14.6,27,0.00,,,0.00,WUHU216EASYWX,2013-04-30 21:50:00,
2013-04-30 16:52:00,86.0,48.2,29.74,South,180,5.4,14.6,27,0.00,,,0.00,WUHU216EASYWX,2013-04-30 21:52:00,
2013-04-30 16:53:00,86.0,48.2,29.74,South,180,5.4,14.6,27,0.00,,,0.00,WUHU216EASYWX,2013-04-30 21:53:00,
2013-04-30 16:54:00,86.0,48.2,29.74,South,180,5.4,14.6,27,0.00,,,0.00,WUHU216EASYWX,2013-04-30 21:54:00,
2013-04-30 16:55:00,86.0,46.2,29.74,East,90,9.9,14.6,25,0.00,,,0.00,WUHU216EASYWX,2013-04-30 21:55:00,
2013-04-30 16:58:00,86.0,46.2,29.74,East,90,9.9,14.6,25,0.00,,,0.00,WUHU216EASYWX,2013-04-30 21:58:00,
2013-04-30 16:59:00,86.0,46.2,29.74,East,90,9.9,14.6,25,0.00,,,0.00,WUHU216EASYWX,2013-04-30 21:59:00,
2013-04-30 17:00:00,85.8,47.1,29.74,SE,135,8.3,13.0,26,0.00,,,0.00,WUHU216EASYWX,2013-04-30 22:00:00,
2013-04-30 17:03:00,85.8,47.1,29.74,SE,135,8.3,13.0,26,0.00,,,0.00,WUHU216EASYWX,2013-04-30 22:03:00,
2013-04-30 17:04:00,85.8,47.1,29.74,SE,135,8.3,13.0,26,0.00,,,0.00,WUHU216EASYWX,2013-04-30 22:04:00,
2013-04-30 17:05:00,85.3,45.5,29.73,East,90,4.5,13.0,25,0.00,,,0.00,WUHU216EASYWX,2013-04-30 22:05:00,
2013-04-30 17:08:00,85.3,45.5,29.73,East,90,4.5,13.0,25,0.00,,,0.00,WUHU216EASYWX,2013-04-30 22:08:00,
2013-04-30 17:09:00,85.6,44.8,29.74,East,90,4.5,13.0,24,0.00,,,0.00,WUHU216EASYWX,2013-04-30 22:09:00,
2013-04-30 17:10:00,85.6,44.8,29.74,East,90,4.5,9.9,24,0.00,,,0.00,WUHU216EASYWX,2013-04-30 22:10:00,
2013-04-30 17:11:00,85.6,44.8,29.74,East,90,4.5,9.9,24,0.00,,,0.00,WUHU216EASYWX,2013-04-30 22:11:00,
2013-04-30 17:13:00,85.6,44.8,29.74,East,90,4.5,9.9,24,0.00,,,0.00,WUHU216EASYWX,2013-04-30 22:13:00,
2013-04-30 17:14:00,86.0,45.1,29.73,South,180,5.4,9.2,24,0.00,,,0.00,WUHU216EASYWX,2013-04-30 22:14:00,
2013-04-30 17:15:00,86.0,45.1,29.73,South,180,5.4,9.2,24,0.00,,,0.00,WUHU216EASYWX,2013-04-30 22:15:00,
2013-04-30 17:16:00,86.0,45.1,29.73,South,180,5.4,9.2,24,0.00,,,0.00,WUHU216EASYWX,2013-04-30 22:16:00,
2013-04-30 17:18:00,86.0,45.1,29.73,South,180,5.4,9.2,24,0.00,,,0.00,WUHU216EASYWX,2013-04-30 22:18:00,
2013-04-30 17:19:00,86.2,46.2,29.74,SE,135,4.5,9.2,25,0.00,,,0.00,WUHU216EASYWX,2013-04-30 22:19:00,
2013-04-30 17:20:00,86.2,46.2,29.74,SE,135,4.5,9.2,25,0.00,,,0.00,WUHU216EASYWX,2013-04-30 22:20:00,
2013-04-30 17:21:00,86.2,46.2,29.74,SE,135,4.5,9.2,25,0.00,,,0.00,WUHU216EASYWX,2013-04-30 22:21:00,
2013-04-30 17:24:00,86.2,46.2,29.74,SE,135,4.5,9.2,25,0.00,,,0.00,WUHU216EASYWX,2013-04-30 22:24:00,
2013-04-30 17:25:00,86.4,45.3,29.73,East,90,6.9,11.4,24,0.00,,,0.00,WUHU216EASYWX,2013-04-30 22:25:00,
2013-04-30 17:26:00,86.4,45.3,29.73,East,90,6.9,11.4,24,0.00,,,0.00,WUHU216EASYWX,2013-04-30 22:26:00,
2013-04-30 17:29:00,85.8,47.1,29.73,South,180,6.9,15.9,26,0.00,,,0.00,WUHU216EASYWX,2013-04-30 22:29:00,
2013-04-30 17:30:00,85.8,47.1,29.73,South,180,6.9,15.9,26,0.00,,,0.00,WUHU216EASYWX,2013-04-30 22:30:00,
2013-04-30 17:31:00,85.8,47.1,29.73,South,180,6.9,15.9,26,0.00,,,0.00,WUHU216EASYWX,2013-04-30 22:31:00,
2013-04-30 17:34:00,84.9,47.3,29.73,East,90,5.4,15.9,27,0.00,,,0.00,WUHU216EASYWX,2013-04-30 22:34:00,
2013-04-30 17:35:00,84.9,47.3,29.73,East,90,5.4,15.9,27,0.00,,,0.00,WUHU216EASYWX,2013-04-30 22:35:00,
2013-04-30 17:36:00,84.9,47.3,29.73,East,90,5.4,15.9,27,0.00,,,0.00,WUHU216EASYWX,2013-04-30 22:36:00,
2013-04-30 17:39:00,85.6,47.8,29.73,West,270,4.5,13.7,27,0.00,,,0.00,WUHU216EASYWX,2013-04-30 22:39:00,
2013-04-30 17:40:00,85.6,47.8,29.73,West,270,4.5,13.7,27,0.00,,,0.00,WUHU216EASYWX,2013-04-30 22:40:00,
2013-04-30 17:41:00,85.6,47.8,29.73,West,270,4.5,13.7,27,0.00,,,0.00,WUHU216EASYWX,2013-04-30 22:41:00,
2013-04-30 17:44:00,86.0,47.1,29.73,South,180,10.8,15.9,26,0.00,,,0.00,WUHU216EASYWX,2013-04-30 22:44:00,
2013-04-30 17:45:00,86.0,47.1,29.73,South,180,10.8,15.9,26,0.00,,,0.00,WUHU216EASYWX,2013-04-30 22:45:00,
2013-04-30 17:46:00,86.0,47.1,29.73,South,180,10.8,15.9,26,0.00,,,0.00,WUHU216EASYWX,2013-04-30 22:46:00,
2013-04-30 17:50:00,86.0,47.1,29.73,NW,315,5.4,15.9,26,0.00,,,0.00,WUHU216EASYWX,2013-04-30 22:50:00,
2013-04-30 17:51:00,86.0,47.1,29.73,NW,315,5.4,15.9,26,0.00,,,0.00,WUHU216EASYWX,2013-04-30 22:51:00,
2013-04-30 17:55:00,85.8,48.0,29.73,South,180,6.0,10.8,27,0.00,,,0.00,WUHU216EASYWX,2013-04-30 22:55:00,
2013-04-30 17:56:00,85.8,48.0,29.73,South,180,6.0,10.8,27,0.00,,,0.00,WUHU216EASYWX,2013-04-30 22:56:00,
2013-04-30 17:57:00,85.8,48.0,29.73,South,180,6.0,10.8,27,0.00,,,0.00,WUHU216EASYWX,2013-04-30 22:57:00,
2013-04-30 18:00:00,85.1,46.4,29.73,South,180,9.9,18.4,26,0.00,,,0.00,WUHU216EASYWX,2013-04-30 23:00:00,
2013-04-30 18:01:00,85.1,46.4,29.73,South,180,9.9,18.4,26,0.00,,,0.00,WUHU216EASYWX,2013-04-30 23:01:00,
2013-04-30 18:02:00,85.1,46.4,29.73,South,180,9.9,18.4,26,0.00,,,0.00,WUHU216EASYWX,2013-04-30 23:02:00,
2013-04-30 18:05:00,85.1,47.5,29.73,East,90,7.6,18.4,27,0.00,,,0.00,WUHU216EASYWX,2013-04-30 23:05:00,
2013-04-30 18:06:00,85.1,47.5,29.73,East,90,7.6,18.4,27,0.00,,,0.00,WUHU216EASYWX,2013-04-30 23:06:00,
2013-04-30 18:07:00,85.1,47.5,29.73,East,90,7.6,18.4,27,0.00,,,0.00,WUHU216EASYWX,2013-04-30 23:07:00,
2013-04-30 18:10:00,85.1,47.5,29.73,SW,225,5.4,11.4,27,0.00,,,0.00,WUHU216EASYWX,2013-04-30 23:10:00,
2013-04-30 18:11:00,85.1,47.5,29.73,SW,225,5.4,11.4,27,0.00,,,0.00,WUHU216EASYWX,2013-04-30 23:11:00,
2013-04-30 18:12:00,85.1,47.5,29.73,SW,225,5.4,11.4,27,0.00,,,0.00,WUHU216EASYWX,2013-04-30 23:12:00,
2013-04-30 18:15:00,84.9,47.3,29.74,SSE,158,7.6,14.6,27,0.00,,,0.00,WUHU216EASYWX,2013-04-30 23:15:00,
2013-04-30 18:16:00,84.9,47.3,29.74,SSE,158,7.6,14.6,27,0.00,,,0.00,WUHU216EASYWX,2013-04-30 23:16:00,
2013-04-30 18:17:00,84.9,47.3,29.74,SSE,158,7.6,14.6,27,0.00,,,0.00,WUHU216EASYWX,2013-04-30 23:17:00,
2013-04-30 18:20:00,85.3,46.6,29.73,West,270,6.9,14.6,26,0.00,,,0.00,WUHU216EASYWX,2013-04-30 23:20:00,
2013-04-30 18:21:00,85.3,46.6,29.73,West,270,6.9,14.6,26,0.00,,,0.00,WUHU216EASYWX,2013-04-30 23:21:00,
2013-04-30 18:22:00,85.3,46.6,29.73,West,270,6.9,14.6,26,0.00,,,0.00,WUHU216EASYWX,2013-04-30 23:22:00,
2013-04-30 18:25:00,84.6,48.0,29.73,South,180,6.9,14.6,28,0.00,,,0.00,WUHU216EASYWX,2013-04-30 23:25:00,
2013-04-30 18:26:00,84.6,48.0,29.73,South,180,6.9,14.6,28,0.00,,,0.00,WUHU216EASYWX,2013-04-30 23:26:00,
2013-04-30 18:27:00,84.6,48.0,29.73,South,180,6.9,14.6,28,0.00,,,0.00,WUHU216EASYWX,2013-04-30 23:27:00,
2013-04-30 18:30:00,84.4,49.6,29.73,East,90,1.6,13.0,30,0.00,,,0.00,WUHU216EASYWX,2013-04-30 23:30:00,
2013-04-30 18:31:00,84.4,49.6,29.73,East,90,1.6,13.0,30,0.00,,,0.00,WUHU216EASYWX,2013-04-30 23:31:00,
2013-04-30 18:32:00,84.4,49.6,29.73,East,90,1.6,13.0,30,0.00,,,0.00,WUHU216EASYWX,2013-04-30 23:32:00,
2013-04-30 18:33:00,84.4,49.6,29.73,East,90,1.6,13.0,30,0.00,,,0.00,WUHU216EASYWX,2013-04-30 23:33:00,
2013-04-30 18:35:00,84.9,49.1,29.74,SE,135,4.5,12.1,29,0.00,,,0.00,WUHU216EASYWX,2013-04-30 23:35:00,
2013-04-30 18:36:00,84.9,49.1,29.74,SE,135,4.5,12.1,29,0.00,,,0.00,WUHU216EASYWX,2013-04-30 23:36:00,
2013-04-30 18:37:00,84.9,49.1,29.74,SE,135,4.5,12.1,29,0.00,,,0.00,WUHU216EASYWX,2013-04-30 23:37:00,
2013-04-30 18:38:00,84.9,49.1,29.74,SE,135,4.5,12.1,29,0.00,,,0.00,WUHU216EASYWX,2013-04-30 23:38:00,
2013-04-30 18:40:00,84.2,48.6,29.74,SW,225,9.9,22.8,29,0.00,,,0.00,WUHU216EASYWX,2013-04-30 23:40:00,
2013-04-30 18:41:00,84.2,48.6,29.74,SW,225,9.9,22.8,29,0.00,,,0.00,WUHU216EASYWX,2013-04-30 23:41:00,
2013-04-30 18:42:00,84.2,48.6,29.74,SW,225,9.9,22.8,29,0.00,,,0.00,WUHU216EASYWX,2013-04-30 23:42:00,
2013-04-30 18:43:00,84.2,48.6,29.74,SW,225,9.9,22.8,29,0.00,,,0.00,WUHU216EASYWX,2013-04-30 23:43:00,
2013-04-30 18:45:00,84.0,49.3,29.74,West,270,5.4,22.8,30,0.00,,,0.00,WUHU216EASYWX,2013-04-30 23:45:00,
2013-04-30 18:47:00,84.0,49.3,29.74,West,270,5.4,22.8,30,0.00,,,0.00,WUHU216EASYWX,2013-04-30 23:47:00,
2013-04-30 18:48:00,84.0,49.3,29.74,West,270,5.4,22.8,30,0.00,,,0.00,WUHU216EASYWX,2013-04-30 23:48:00,
2013-04-30 18:50:00,84.0,49.3,29.74,NE,45,7.6,15.9,30,0.00,,,0.00,WUHU216EASYWX,2013-04-30 23:50:00,
2013-04-30 18:52:00,84.0,49.3,29.74,NE,45,7.6,15.9,30,0.00,,,0.00,WUHU216EASYWX,2013-04-30 23:52:00,
2013-04-30 18:53:00,84.0,49.3,29.74,NE,45,7.6,15.9,30,0.00,,,0.00,WUHU216EASYWX,2013-04-30 23:53:00,
2013-04-30 18:55:00,83.7,49.8,29.74,SE,135,6.0,15.9,31,0.00,,,0.00,WUHU216EASYWX,2013-04-30 23:55:00,
2013-04-30 18:57:00,83.7,49.8,29.74,SE,135,6.0,15.9,31,0.00,,,0.00,WUHU216EASYWX,2013-04-30 23:57:00,
2013-04-30 18:58:00,83.7,49.8,29.74,SE,135,6.0,15.9,31,0.00,,,0.00,WUHU216EASYWX,2013-04-30 23:58:00,
2013-04-30 18:59:00,83.5,49.8,29.74,South,180,5.4,15.9,31,0.00,,,0.00,WUHU216EASYWX,2013-04-30 23:59:00,
2013-04-30 19:01:00,83.5,49.8,29.74,South,180,5.4,15.9,31,0.00,,,0.00,WUHU216EASYWX,2013-05-01 00:01:00,
2013-04-30 19:02:00,83.5,49.8,29.74,South,180,5.4,15.9,31,0.00,,,0.00,WUHU216EASYWX,2013-05-01 00:02:00,
2013-04-30 19:03:00,83.5,49.8,29.74,South,180,5.4,15.9,31,0.00,,,0.00,WUHU216EASYWX,2013-05-01 00:03:00,
2013-04-30 19:04:00,83.5,49.8,29.75,SW,225,6.9,15.9,31,0.00,,,0.00,WUHU216EASYWX,2013-05-01 00:04:00,
2013-04-30 19:06:00,83.5,49.8,29.75,SW,225,6.9,15.9,31,0.00,,,0.00,WUHU216EASYWX,2013-05-01 00:06:00,
2013-04-30 19:07:00,83.5,49.8,29.75,SW,225,6.9,15.9,31,0.00,,,0.00,WUHU216EASYWX,2013-05-01 00:07:00,
2013-04-30 19:08:00,83.5,49.8,29.75,SW,225,6.9,15.9,31,0.00,,,0.00,WUHU216EASYWX,2013-05-01 00:08:00,
2013-04-30 19:09:00,83.3,50.4,29.74,SW,225,9.2,13.0,32,0.00,,,0.00,WUHU216EASYWX,2013-05-01 00:09:00,
2013-04-30 19:11:00,83.3,50.4,29.74,SW,225,9.2,13.0,32,0.00,,,0.00,WUHU216EASYWX,2013-05-01 00:11:00,
2013-04-30 19:13:00,83.3,50.4,29.74,SW,225,9.2,13.0,32,0.00,,,0.00,WUHU216EASYWX,2013-05-01 00:13:00,
2013-04-30 19:14:00,83.1,51.1,29.75,South,180,6.0,13.0,33,0.00,,,0.00,WUHU216EASYWX,2013-05-01 00:14:00,
2013-04-30 19:16:00,83.1,51.1,29.75,South,180,6.0,13.0,33,0.00,,,0.00,WUHU216EASYWX,2013-05-01 00:16:00,
2013-04-30 19:18:00,83.1,51.1,29.75,South,180,6.0,13.0,33,0.00,,,0.00,WUHU216EASYWX,2013-05-01 00:18:00,
2013-04-30 19:19:00,82.9,51.8,29.75,SW,225,7.6,11.4,34,0.00,,,0.00,WUHU216EASYWX,2013-05-01 00:19:00,
2013-04-30 19:21:00,82.9,51.8,29.75,SW,225,7.6,11.4,34,0.00,,,0.00,WUHU216EASYWX,2013-05-01 00:21:00,
2013-04-30 19:23:00,82.9,51.8,29.75,SW,225,7.6,11.4,34,0.00,,,0.00,WUHU216EASYWX,2013-05-01 00:23:00,
2013-04-30 19:24:00,82.9,51.8,29.75,SW,225,3.1,11.4,34,0.00,,,0.00,WUHU216EASYWX,2013-05-01 00:24:00,
2013-04-30 19:27:00,82.9,51.8,29.75,SW,225,3.1,11.4,34,0.00,,,0.00,WUHU216EASYWX,2013-05-01 00:27:00,
2013-04-30 19:28:00,82.9,51.8,29.75,SW,225,3.1,11.4,34,0.00,,,0.00,WUHU216EASYWX,2013-05-01 00:28:00,
2013-04-30 19:29:00,82.4,52.9,29.75,NNE,23,3.1,5.4,36,0.00,,,0.00,WUHU216EASYWX,2013-05-01 00:29:00,
2013-04-30 19:30:00,82.4,52.9,29.75,NNE,23,3.1,5.4,36,0.00,,,0.00,WUHU216EASYWX,2013-05-01 00:30:00,
2013-04-30 19:32:00,82.4,52.9,29.75,NNE,23,3.1,5.4,36,0.00,,,0.00,WUHU216EASYWX,2013-05-01 00:32:00,
2013-04-30 19:33:00,82.4,52.9,29.75,NNE,23,3.1,5.4,36,0.00,,,0.00,WUHU216EASYWX,2013-05-01 00:33:00,
2013-04-30 19:34:00,82.0,53.2,29.76,South,180,3.8,5.4,37,0.00,,,0.00,WUHU216EASYWX,2013-05-01 00:34:00,
2013-04-30 19:35:00,82.0,53.2,29.76,South,180,3.8,5.4,37,0.00,,,0.00,WUHU216EASYWX,2013-05-01 00:35:00,
2013-04-30 19:37:00,82.0,53.2,29.76,South,180,3.8,5.4,37,0.00,,,0.00,WUHU216EASYWX,2013-05-01 00:37:00,
2013-04-30 19:39:00,81.7,52.9,29.76,South,180,3.1,9.9,37,0.00,,,0.00,WUHU216EASYWX,2013-05-01 00:39:00,
2013-04-30 19:40:00,81.7,52.9,29.76,South,180,3.1,9.9,37,0.00,,,0.00,WUHU216EASYWX,2013-05-01 00:40:00,
2013-04-30 19:42:00,81.7,52.9,29.76,South,180,3.1,9.9,37,0.00,,,0.00,WUHU216EASYWX,2013-05-01 00:42:00,
2013-04-30 19:44:00,81.7,53.6,29.76,SE,135,3.1,9.9,38,0.00,,,0.00,WUHU216EASYWX,2013-05-01 00:44:00,
2013-04-30 19:45:00,81.7,53.6,29.76,SE,135,3.1,9.9,38,0.00,,,0.00,WUHU216EASYWX,2013-05-01 00:45:00,
2013-04-30 19:48:00,81.7,53.6,29.76,SE,135,3.1,9.9,38,0.00,,,0.00,WUHU216EASYWX,2013-05-01 00:48:00,
2013-04-30 19:49:00,81.5,53.6,29.76,South,180,3.8,5.4,38,0.00,,,0.00,WUHU216EASYWX,2013-05-01 00:49:00,
2013-04-30 19:50:00,81.5,53.6,29.76,South,180,3.8,5.4,38,0.00,,,0.00,WUHU216EASYWX,2013-05-01 00:50:00,
2013-04-30 19:53:00,81.5,53.6,29.76,South,180,3.8,5.4,38,0.00,,,0.00,WUHU216EASYWX,2013-05-01 00:53:00,
2013-04-30 19:54:00,81.0,53.8,29.76,South,180,5.4,9.9,39,0.00,,,0.00,WUHU216EASYWX,2013-05-01 00:54:00,
2013-04-30 19:55:00,81.0,53.8,29.76,South,180,5.4,9.9,39,0.00,,,0.00,WUHU216EASYWX,2013-05-01 00:55:00,
2013-04-30 19:56:00,81.0,53.8,29.76,South,180,5.4,9.9,39,0.00,,,0.00,WUHU216EASYWX,2013-05-01 00:56:00,
2013-04-30 19:58:00,81.0,53.8,29.76,South,180,5.4,9.9,39,0.00,,,0.00,WUHU216EASYWX,2013-05-01 00:58:00,
2013-04-30 19:59:00,80.6,53.4,29.76,SW,225,2.2,9.9,39,0.00,,,0.00,WUHU216EASYWX,2013-05-01 00:59:00,
2013-04-30 20:00:00,80.6,53.4,29.76,SW,225,2.2,9.9,39,0.00,,,0.00,WUHU216EASYWX,2013-05-01 01:00:00,
2013-04-30 20:01:00,80.6,53.4,29.76,SW,225,2.2,9.9,39,0.00,,,0.00,WUHU216EASYWX,2013-05-01 01:01:00,
2013-04-30 20:03:00,80.6,53.4,29.76,SW,225,2.2,9.9,39,0.00,,,0.00,WUHU216EASYWX,2013-05-01 01:03:00,
2013-04-30 20:05:00,80.4,53.2,29.75,NW,315,3.1,6.0,39,0.00,,,0.00,WUHU216EASYWX,2013-05-01 01:05:00,
2013-04-30 20:06:00,80.4,53.2,29.75,NW,315,3.1,6.0,39,0.00,,,0.00,WUHU216EASYWX,2013-05-01 01:06:00,
2013-04-30 20:09:00,80.4,53.2,29.75,NW,315,3.1,6.0,39,0.00,,,0.00,WUHU216EASYWX,2013-05-01 01:09:00,
2013-04-30 20:10:00,80.1,52.9,29.76,South,180,3.8,6.0,39,0.00,,,0.00,WUHU216EASYWX,2013-05-01 01:10:00,
2013-04-30 20:11:00,80.1,52.9,29.76,South,180,3.8,6.0,39,0.00,,,0.00,WUHU216EASYWX,2013-05-01 01:11:00,
2013-04-30 20:14:00,79.7,53.2,29.76,SW,225,3.8,6.9,40,0.00,,,0.00,WUHU216EASYWX,2013-05-01 01:14:00,
2013-04-30 20:15:00,79.7,53.2,29.76,SW,225,3.8,6.9,40,0.00,,,0.00,WUHU216EASYWX,2013-05-01 01:15:00,
2013-04-30 20:16:00,79.7,53.2,29.76,SW,225,3.8,6.9,40,0.00,,,0.00,WUHU216EASYWX,2013-05-01 01:16:00,
2013-04-30 20:20:00,79.5,53.1,29.76,SW,225,1.6,6.9,40,0.00,,,0.00,WUHU216EASYWX,2013-05-01 01:20:00,
2013-04-30 20:21:00,79.5,53.1,29.76,SW,225,1.6,6.9,40,0.00,,,0.00,WUHU216EASYWX,2013-05-01 01:21:00,
2013-04-30 20:25:00,79.3,53.1,29.76,SE,135,1.6,3.8,40,0.00,,,0.00,WUHU216EASYWX,2013-05-01 01:25:00,
2013-04-30 20:26:00,79.3,53.1,29.76,SE,135,1.6,3.8,40,0.00,,,0.00,WUHU216EASYWX,2013-05-01 01:26:00,
2013-04-30 20:31:00,79.2,53.4,29.77,SE,135,1.6,3.1,41,0.00,,,0.00,WUHU216EASYWX,2013-05-01 01:31:00,
2013-04-30 20:32:00,79.2,53.4,29.77,SE,135,1.6,3.1,41,0.00,,,0.00,WUHU216EASYWX,2013-05-01 01:32:00,
2013-04-30 20:36:00,79.0,53.4,29.76,South,180,3.1,6.0,41,0.00,,,0.00,WUHU216EASYWX,2013-05-01 01:36:00,
2013-04-30 20:37:00,79.0,53.4,29.76,South,180,3.1,6.0,41,0.00,,,0.00,WUHU216EASYWX,2013-05-01 01:37:00,
2013-04-30 20:41:00,78.8,53.2,29.77,South,180,2.2,6.0,41,0.00,,,0.00,WUHU216EASYWX,2013-05-01 01:41:00,
2013-04-30 20:42:00,78.8,53.2,29.77,South,180,2.2,6.0,41,0.00,,,0.00,WUHU216EASYWX,2013-05-01 01:42:00,
2013-04-30 20:43:00,78.8,53.2,29.77,South,180,2.2,6.0,41,0.00,,,0.00,WUHU216EASYWX,2013-05-01 01:43:00,
2013-04-30 20:46:00,78.6,53.1,29.77,SE,135,3.1,6.9,41,0.00,,,0.00,WUHU216EASYWX,2013-05-01 01:46:00,
2013-04-30 20:47:00,78.6,53.1,29.77,SE,135,3.1,6.9,41,0.00,,,0.00,WUHU216EASYWX,2013-05-01 01:47:00,
2013-04-30 20:48:00,78.6,53.1,29.77,SE,135,3.1,6.9,41,0.00,,,0.00,WUHU216EASYWX,2013-05-01 01:48:00,
2013-04-30 20:51:00,78.4,52.9,29.77,South,180,1.6,6.9,41,0.00,,,0.00,WUHU216EASYWX,2013-05-01 01:51:00,
2013-04-30 20:52:00,78.4,52.9,29.77,South,180,1.6,6.9,41,0.00,,,0.00,WUHU216EASYWX,2013-05-01 01:52:00,
2013-04-30 20:53:00,78.4,52.9,29.77,South,180,1.6,6.9,41,0.00,,,0.00,WUHU216EASYWX,2013-05-01 01:53:00,
2013-04-30 20:56:00,78.3,52.7,29.77,SE,135,3.1,6.0,41,0.00,,,0.00,WUHU216EASYWX,2013-05-01 01:56:00,
2013-04-30 20:57:00,78.3,52.7,29.77,SE,135,3.1,6.0,41,0.00,,,0.00,WUHU216EASYWX,2013-05-01 01:57:00,
2013-04-30 20:58:00,78.3,52.7,29.77,SE,135,3.1,6.0,41,0.00,,,0.00,WUHU216EASYWX,2013-05-01 01:58:00,
2013-04-30 21:01:00,78.3,53.4,29.77,SE,135,1.6,6.0,42,0.00,,,0.00,WUHU216EASYWX,2013-05-01 02:01:00,
2013-04-30 21:02:00,78.3,53.4,29.77,SE,135,1.6,6.0,42,0.00,,,0.00,WUHU216EASYWX,2013-05-01 02:02:00,
2013-04-30 21:03:00,78.3,53.4,29.77,SE,135,1.6,6.0,42,0.00,,,0.00,WUHU216EASYWX,2013-05-01 02:03:00,
2013-04-30 21:06:00,78.3,53.4,29.77,South,180,1.6,5.4,42,0.00,,,0.00,WUHU216EASYWX,2013-05-01 02:06:00,
2013-04-30 21:07:00,78.3,53.4,29.77,South,180,1.6,5.4,42,0.00,,,0.00,WUHU216EASYWX,2013-05-01 02:07:00,
2013-04-30 21:08:00,78.3,53.4,29.77,South,180,1.6,5.4,42,0.00,,,0.00,WUHU216EASYWX,2013-05-01 02:08:00,
2013-04-30 21:11:00,77.7,53.4,29.77,SE,135,1.6,4.5,43,0.00,,,0.00,WUHU216EASYWX,2013-05-01 02:11:00,
2013-04-30 21:12:00,77.7,53.4,29.77,SE,135,1.6,4.5,43,0.00,,,0.00,WUHU216EASYWX,2013-05-01 02:12:00,
2013-04-30 21:13:00,77.7,53.4,29.77,SE,135,1.6,4.5,43,0.00,,,0.00,WUHU216EASYWX,2013-05-01 02:13:00,
2013-04-30 21:14:00,77.7,53.4,29.77,SE,135,1.6,4.5,43,0.00,,,0.00,WUHU216EASYWX,2013-05-01 02:14:00,
2013-04-30 21:17:00,77.4,53.8,29.77,SW,225,1.6,3.8,44,0.00,,,0.00,WUHU216EASYWX,2013-05-01 02:17:00,
2013-04-30 21:18:00,77.4,53.8,29.77,SW,225,1.6,3.8,44,0.00,,,0.00,WUHU216EASYWX,2013-05-01 02:18:00,
2013-04-30 21:19:00,77.0,53.4,29.78,South,180,0.7,3.8,44,0.00,,,0.00,WUHU216EASYWX,2013-05-01 02:19:00,
2013-04-30 21:22:00,77.0,53.4,29.78,South,180,0.7,3.8,44,0.00,,,0.00,WUHU216EASYWX,2013-05-01 02:22:00,
2013-04-30 21:23:00,77.0,53.4,29.78,South,180,0.7,3.8,44,0.00,,,0.00,WUHU216EASYWX,2013-05-01 02:23:00,
2013-04-30 21:24:00,76.6,53.8,29.77,SE,135,0.7,2.2,45,0.00,,,0.00,WUHU216EASYWX,2013-05-01 02:24:00,
2013-04-30 21:27:00,76.6,53.8,29.77,SE,135,0.7,2.2,45,0.00,,,0.00,WUHU216EASYWX,2013-05-01 02:27:00,
2013-04-30 21:28:00,76.6,53.8,29.77,SE,135,0.7,2.2,45,0.00,,,0.00,WUHU216EASYWX,2013-05-01 02:28:00,
2013-04-30 21:29:00,76.3,54.0,29.78,SE,135,1.6,3.8,46,0.00,,,0.00,WUHU216EASYWX,2013-05-01 02:29:00,
2013-04-30 21:32:00,76.3,54.0,29.78,SE,135,1.6,3.8,46,0.00,,,0.00,WUHU216EASYWX,2013-05-01 02:32:00,
2013-04-30 21:33:00,76.3,54.0,29.78,SE,135,1.6,3.8,46,0.00,,,0.00,WUHU216EASYWX,2013-05-01 02:33:00,
2013-04-30 21:34:00,76.3,54.0,29.78,SE,135,1.6,3.8,46,0.00,,,0.00,WUHU216EASYWX,2013-05-01 02:34:00,
2013-04-30 21:35:00,76.1,54.0,29.78,East,90,3.8,7.6,46,0.00,,,0.00,WUHU216EASYWX,2013-05-01 02:35:00,
2013-04-30 21:37:00,76.1,54.0,29.78,East,90,3.8,7.6,46,0.00,,,0.00,WUHU216EASYWX,2013-05-01 02:37:00,
2013-04-30 21:38:00,76.1,54.0,29.78,East,90,3.8,7.6,46,0.00,,,0.00,WUHU216EASYWX,2013-05-01 02:38:00,
2013-04-30 21:39:00,76.1,54.0,29.78,East,90,3.8,7.6,46,0.00,,,0.00,WUHU216EASYWX,2013-05-01 02:39:00,
2013-04-30 21:40:00,76.1,54.0,29.78,SE,135,2.2,7.6,46,0.00,,,0.00,WUHU216EASYWX,2013-05-01 02:40:00,
2013-04-30 21:42:00,76.1,54.0,29.78,SE,135,2.2,7.6,46,0.00,,,0.00,WUHU216EASYWX,2013-05-01 02:42:00,
2013-04-30 21:43:00,76.1,54.0,29.78,SE,135,2.2,7.6,46,0.00,,,0.00,WUHU216EASYWX,2013-05-01 02:43:00,
2013-04-30 21:44:00,75.9,54.3,29.78,East,90,0.7,7.6,47,0.00,,,0.00,WUHU216EASYWX,2013-05-01 02:44:00,
2013-04-30 21:45:00,75.9,54.3,29.78,East,90,0.7,5.4,47,0.00,,,0.00,WUHU216EASYWX,2013-05-01 02:45:00,
2013-04-30 21:47:00,75.9,54.3,29.78,East,90,0.7,5.4,47,0.00,,,0.00,WUHU216EASYWX,2013-05-01 02:47:00,
2013-04-30 21:48:00,75.9,54.3,29.78,East,90,0.7,5.4,47,0.00,,,0.00,WUHU216EASYWX,2013-05-01 02:48:00,
2013-04-30 21:49:00,75.7,54.1,29.78,South,180,2.2,4.5,47,0.00,,,0.00,WUHU216EASYWX,2013-05-01 02:49:00,
2013-04-30 21:50:00,75.7,54.1,29.78,South,180,2.2,4.5,47,0.00,,,0.00,WUHU216EASYWX,2013-05-01 02:50:00,
2013-04-30 21:51:00,75.7,54.1,29.78,South,180,2.2,4.5,47,0.00,,,0.00,WUHU216EASYWX,2013-05-01 02:51:00,
2013-04-30 21:52:00,75.7,54.1,29.78,South,180,2.2,4.5,47,0.00,,,0.00,WUHU216EASYWX,2013-05-01 02:52:00,
2013-04-30 21:53:00,75.7,54.1,29.78,South,180,2.2,4.5,47,0.00,,,0.00,WUHU216EASYWX,2013-05-01 02:53:00,
2013-04-30 21:54:00,75.7,54.1,29.79,SE,135,3.1,4.5,47,0.00,,,0.00,WUHU216EASYWX,2013-05-01 02:54:00,
2013-04-30 21:56:00,75.7,54.1,29.79,SE,135,3.1,4.5,47,0.00,,,0.00,WUHU216EASYWX,2013-05-01 02:56:00,
2013-04-30 21:57:00,75.7,54.1,29.79,SE,135,3.1,4.5,47,0.00,,,0.00,WUHU216EASYWX,2013-05-01 02:57:00,
2013-04-30 21:58:00,75.7,54.1,29.79,SE,135,3.1,4.5,47,0.00,,,0.00,WUHU216EASYWX,2013-05-01 02:58:00,
2013-04-30 21:59:00,75.6,54.0,29.79,SE,135,3.8,7.6,47,0.00,,,0.00,WUHU216EASYWX,2013-05-01 02:59:00,
2013-04-30 22:01:00,75.6,54.0,29.79,SE,135,3.8,7.6,47,0.00,,,0.00,WUHU216EASYWX,2013-05-01 03:01:00,
2013-04-30 22:02:00,75.6,54.0,29.79,SE,135,3.8,7.6,47,0.00,,,0.00,WUHU216EASYWX,2013-05-01 03:02:00,
2013-04-30 22:03:00,75.6,54.0,29.79,SE,135,3.8,7.6,47,0.00,,,0.00,WUHU216EASYWX,2013-05-01 03:03:00,
2013-04-30 22:04:00,75.6,54.0,29.79,East,90,2.2,7.6,47,0.00,,,0.00,WUHU216EASYWX,2013-05-01 03:04:00,
2013-04-30 22:06:00,75.6,54.0,29.79,East,90,2.2,7.6,47,0.00,,,0.00,WUHU216EASYWX,2013-05-01 03:06:00,
2013-04-30 22:07:00,75.6,54.0,29.79,East,90,2.2,7.6,47,0.00,,,0.00,WUHU216EASYWX,2013-05-01 03:07:00,
2013-04-30 22:08:00,75.6,54.0,29.79,East,90,2.2,7.6,47,0.00,,,0.00,WUHU216EASYWX,2013-05-01 03:08:00,
2013-04-30 22:09:00,75.6,54.0,29.79,East,90,2.2,4.5,47,0.00,,,0.00,WUHU216EASYWX,2013-05-01 03:09:00,
2013-04-30 22:12:00,75.4,54.3,29.80,SW,225,3.1,6.0,48,0.00,,,0.00,WUHU216EASYWX,2013-05-01 03:12:00,
2013-04-30 22:13:00,75.4,54.3,29.80,SW,225,3.1,6.0,48,0.00,,,0.00,WUHU216EASYWX,2013-05-01 03:13:00,
2013-04-30 22:14:00,75.2,54.1,29.80,SW,225,3.1,6.0,48,0.00,,,0.00,WUHU216EASYWX,2013-05-01 03:14:00,
2013-04-30 22:17:00,75.2,54.1,29.80,SW,225,3.1,6.0,48,0.00,,,0.00,WUHU216EASYWX,2013-05-01 03:17:00,
2013-04-30 22:18:00,75.2,54.1,29.80,SW,225,3.1,6.0,48,0.00,,,0.00,WUHU216EASYWX,2013-05-01 03:18:00,
2013-04-30 22:19:00,75.0,54.7,29.80,SE,135,2.2,5.4,49,0.00,,,0.00,WUHU216EASYWX,2013-05-01 03:19:00,
2013-04-30 22:22:00,75.0,54.7,29.80,SE,135,2.2,5.4,49,0.00,,,0.00,WUHU216EASYWX,2013-05-01 03:22:00,
2013-04-30 22:23:00,75.0,54.7,29.80,SE,135,2.2,5.4,49,0.00,,,0.00,WUHU216EASYWX,2013-05-01 03:23:00,
2013-04-30 22:24:00,74.8,55.0,29.80,East,90,1.6,4.5,50,0.00,,,0.00,WUHU216EASYWX,2013-05-01 03:24:00,
2013-04-30 22:28:00,74.8,55.0,29.80,East,90,1.6,4.5,50,0.00,,,0.00,WUHU216EASYWX,2013-05-01 03:28:00,
2013-04-30 22:29:00,74.5,54.7,29.80,South,180,3.1,4.5,50,0.00,,,0.00,WUHU216EASYWX,2013-05-01 03:29:00,
2013-04-30 22:33:00,74.5,54.7,29.80,South,180,3.1,4.5,50,0.00,,,0.00,WUHU216EASYWX,2013-05-01 03:33:00,
2013-04-30 22:34:00,74.1,54.9,29.80,SE,135,2.2,4.5,51,0.00,,,0.00,WUHU216EASYWX,2013-05-01 03:34:00,
2013-04-30 22:35:00,74.1,54.9,29.80,SE,135,2.2,4.5,51,0.00,,,0.00,WUHU216EASYWX,2013-05-01 03:35:00,
2013-04-30 22:38:00,74.1,54.9,29.80,SE,135,2.2,4.5,51,0.00,,,0.00,WUHU216EASYWX,2013-05-01 03:38:00,
2013-04-30 22:39:00,73.9,55.2,29.80,SE,135,1.6,3.8,52,0.00,,,0.00,WUHU216EASYWX,2013-05-01 03:39:00,
2013-04-30 22:40:00,73.9,55.2,29.80,SE,135,1.6,3.8,52,0.00,,,0.00,WUHU216EASYWX,2013-05-01 03:40:00,
2013-04-30 22:41:00,73.9,55.2,29.80,SE,135,1.6,3.8,52,0.00,,,0.00,WUHU216EASYWX,2013-05-01 03:41:00,
2013-04-30 22:44:00,73.9,55.2,29.80,SE,135,1.6,3.8,52,0.00,,,0.00,WUHU216EASYWX,2013-05-01 03:44:00,
2013-04-30 22:46:00,73.8,55.6,29.80,SE,135,3.1,6.0,53,0.00,,,0.00,WUHU216EASYWX,2013-05-01 03:46:00,
2013-04-30 22:49:00,73.8,55.6,29.80,SE,135,3.1,6.0,53,0.00,,,0.00,WUHU216EASYWX,2013-05-01 03:49:00,
2013-04-30 22:51:00,73.4,55.8,29.80,SE,135,2.2,6.0,54,0.00,,,0.00,WUHU216EASYWX,2013-05-01 03:51:00,
2013-04-30 22:54:00,73.4,55.8,29.80,South,180,2.2,5.4,54,0.00,,,0.00,WUHU216EASYWX,2013-05-01 03:54:00,
2013-04-30 22:55:00,73.4,55.8,29.80,South,180,2.2,5.4,54,0.00,,,0.00,WUHU216EASYWX,2013-05-01 03:55:00,
2013-04-30 22:56:00,73.4,55.8,29.80,South,180,2.2,5.4,54,0.00,,,0.00,WUHU216EASYWX,2013-05-01 03:56:00,
2013-04-30 22:59:00,73.2,55.6,29.80,West,270,2.2,4.5,54,0.00,,,0.00,WUHU216EASYWX,2013-05-01 03:59:00,
2013-04-30 23:00:00,73.2,55.6,29.80,West,270,2.2,4.5,54,0.00,,,0.00,WUHU216EASYWX,2013-05-01 04:00:00,
2013-04-30 23:01:00,73.2,55.6,29.80,West,270,2.2,4.5,54,0.00,,,0.00,WUHU216EASYWX,2013-05-01 04:01:00,
2013-04-30 23:06:00,73.2,56.1,29.80,South,180,0.7,4.5,55,0.00,,,0.00,WUHU216EASYWX,2013-05-01 04:06:00,
2013-04-30 23:11:00,72.9,56.3,29.81,South,180,1.6,3.1,56,0.00,,,0.00,WUHU216EASYWX,2013-05-01 04:11:00,
2013-04-30 23:16:00,72.7,56.1,29.81,West,270,3.1,6.0,56,0.00,,,0.00,WUHU216EASYWX,2013-05-01 04:16:00,
2013-04-30 23:17:00,72.7,56.1,29.81,West,270,3.1,6.0,56,0.00,,,0.00,WUHU216EASYWX,2013-05-01 04:17:00,
2013-04-30 23:21:00,72.5,55.9,29.81,North,0,1.6,6.0,56,0.00,,,0.00,WUHU216EASYWX,2013-05-01 04:21:00,
2013-04-30 23:22:00,72.5,55.9,29.81,North,0,1.6,6.0,56,0.00,,,0.00,WUHU216EASYWX,2013-05-01 04:22:00,
2013-04-30 23:26:00,72.5,56.5,29.81,SE,135,3.8,6.0,57,0.00,,,0.00,WUHU216EASYWX,2013-05-01 04:26:00,
2013-04-30 23:27:00,72.5,56.5,29.81,SE,135,3.8,6.0,57,0.00,,,0.00,WUHU216EASYWX,2013-05-01 04:27:00,
2013-04-30 23:31:00,72.5,55.9,29.80,SE,135,2.2,6.0,56,0.00,,,0.00,WUHU216EASYWX,2013-05-01 04:31:00,
2013-04-30 23:32:00,72.5,55.9,29.80,SE,135,2.2,6.0,56,0.00,,,0.00,WUHU216EASYWX,2013-05-01 04:32:00,
2013-04-30 23:36:00,72.5,56.5,29.81,West,270,0.7,4.5,57,0.00,,,0.00,WUHU216EASYWX,2013-05-01 04:36:00,
2013-04-30 23:37:00,72.5,56.5,29.81,West,270,0.7,4.5,57,0.00,,,0.00,WUHU216EASYWX,2013-05-01 04:37:00,
2013-04-30 23:42:00,72.5,56.5,29.81,South,180,3.8,6.0,57,0.00,,,0.00,WUHU216EASYWX,2013-05-01 04:42:00,
2013-04-30 23:43:00,72.5,56.5,29.81,South,180,3.8,6.0,57,0.00,,,0.00,WUHU216EASYWX,2013-05-01 04:43:00,
2013-04-30 23:47:00,72.5,56.5,29.81,East,90,3.1,6.0,57,0.00,,,0.00,WUHU216EASYWX,2013-05-01 04:47:00,
2013-04-30 23:48:00,72.5,56.5,29.81,East,90,3.1,6.0,57,0.00,,,0.00,WUHU216EASYWX,2013-05-01 04:48:00,
2013-04-30 23:52:00,72.3,56.3,29.81,SE,135,1.6,5.4,57,0.00,,,0.00,WUHU216EASYWX,2013-05-01 04:52:00,
2013-04-30 23:53:00,72.3,56.3,29.81,SE,135,1.6,5.4,57,0.00,,,0.00,WUHU216EASYWX,2013-05-01 04:53:00,
2013-04-30 23:58:00,72.3,56.3,29.81,SE,135,3.8,6.0,57,0.00,,,0.00,WUHU216EASYWX,2013-05-01 04:58:00,